Time,TemperatureF,DewpointF,PressureIn,WindDirection,WindDirectionDegrees,WindSpeedMPH,WindSpeedGustMPH,Humidity,HourlyPrecipIn,Conditions,Clouds,dailyrainin,SoftwareType,DateUTC
2013-09-03 00:00:00,70.4,70.0,29.64,WSW,247,14.0,14.0,100,0.00,,,0.00,Rainwise IP-100,2013-09-03 04:00:00,
2013-09-03 00:01:00,70.4,70.0,29.64,WSW,247,9.3,14.0,100,0.00,,,0.00,Rainwise IP-100,2013-09-03 04:01:00,
2013-09-03 00:02:00,70.4,70.0,29.64,WSW,247,8.4,14.0,100,0.00,,,0.00,Rainwise IP-100,2013-09-03 04:02:00,
2013-09-03 00:06:00,70.4,70.0,29.65,WSW,247,5.6,12.0,100,0.00,,,0.00,Rainwise IP-100,2013-09-03 04:06:00,
2013-09-03 00:07:00,70.4,70.0,29.64,WSW,247,6.3,11.0,100,0.00,,,0.00,Rainwise IP-100,2013-09-03 04:07:00,
2013-09-03 00:10:00,70.4,70.0,29.64,SW,225,8.4,11.0,100,0.00,,,0.00,Rainwise IP-100,2013-09-03 04:10:00,
2013-09-03 00:11:00,70.4,70.0,29.65,SW,225,10.0,11.0,100,0.00,,,0.00,Rainwise IP-100,2013-09-03 04:11:00,
2013-09-03 00:12:00,70.4,70.0,29.64,SW,225,9.8,11.0,100,0.00,,,0.00,Rainwise IP-100,2013-09-03 04:12:00,
2013-09-03 00:14:00,70.5,70.0,29.65,SW,225,7.5,11.0,100,0.00,,,0.00,Rainwise IP-100,2013-09-03 04:14:00,
2013-09-03 00:16:00,70.5,70.0,29.65,WSW,247,6.8,11.0,100,0.00,,,0.00,Rainwise IP-100,2013-09-03 04:16:00,
2013-09-03 00:17:00,70.5,70.0,29.65,WSW,247,10.0,11.0,100,0.00,,,0.00,Rainwise IP-100,2013-09-03 04:17:00,
2013-09-03 00:20:00,70.5,70.0,29.65,WSW,247,7.7,10.0,100,0.00,,,0.00,Rainwise IP-100,2013-09-03 04:20:00,
2013-09-03 00:21:00,70.6,70.0,29.65,SW,225,10.3,10.3,100,0.00,,,0.00,Rainwise IP-100,2013-09-03 04:21:00,
2013-09-03 00:22:00,70.6,70.0,29.65,SW,225,5.8,10.0,100,0.00,,,0.00,Rainwise IP-100,2013-09-03 04:22:00,
2013-09-03 00:23:00,70.6,70.0,29.64,SW,225,7.2,10.0,100,0.00,,,0.00,Rainwise IP-100,2013-09-03 04:23:00,
2013-09-03 00:27:00,70.6,70.0,29.65,WSW,247,7.9,11.0,100,0.00,,,0.00,Rainwise IP-100,2013-09-03 04:27:00,
2013-09-03 00:28:00,70.6,70.0,29.65,WSW,247,10.3,11.0,100,0.00,,,0.00,Rainwise IP-100,2013-09-03 04:28:00,
2013-09-03 00:31:00,70.5,70.0,29.65,SW,225,10.5,11.0,100,0.00,,,0.00,Rainwise IP-100,2013-09-03 04:31:00,
2013-09-03 00:32:00,70.5,70.0,29.65,SW,225,7.9,11.0,100,0.00,,,0.00,Rainwise IP-100,2013-09-03 04:32:00,
2013-09-03 00:33:00,70.5,70.0,29.65,SW,225,8.9,11.0,100,0.00,,,0.00,Rainwise IP-100,2013-09-03 04:33:00,
2013-09-03 00:37:00,70.5,70.0,29.65,SW,225,8.2,10.0,100,0.00,,,0.00,Rainwise IP-100,2013-09-03 04:37:00,
2013-09-03 00:39:00,70.5,70.0,29.64,WSW,247,7.2,10.0,100,0.00,,,0.00,Rainwise IP-100,2013-09-03 04:39:00,
2013-09-03 00:42:00,70.4,70.0,29.65,SW,225,8.9,11.0,100,0.00,,,0.00,Rainwise IP-100,2013-09-03 04:42:00,
2013-09-03 00:43:00,70.4,70.0,29.65,WSW,247,7.9,11.0,100,0.00,,,0.00,Rainwise IP-100,2013-09-03 04:43:00,
2013-09-03 00:44:00,70.4,70.0,29.65,SW,225,11.2,11.2,100,0.00,,,0.00,Rainwise IP-100,2013-09-03 04:44:00,
2013-09-03 00:45:00,70.4,70.0,29.65,WSW,247,9.8,11.0,100,0.00,,,0.00,Rainwise IP-100,2013-09-03 04:45:00,
2013-09-03 00:47:00,70.3,70.0,29.65,WSW,247,8.2,11.0,100,0.00,,,0.00,Rainwise IP-100,2013-09-03 04:47:00,
2013-09-03 00:48:00,70.3,70.0,29.65,SW,225,7.2,11.0,100,0.00,,,0.00,Rainwise IP-100,2013-09-03 04:48:00,
2013-09-03 00:49:00,70.3,70.0,29.64,SW,225,7.0,11.0,100,0.00,,,0.00,Rainwise IP-100,2013-09-03 04:49:00,
2013-09-03 00:50:00,70.3,70.0,29.65,WSW,247,7.7,11.0,100,0.00,,,0.00,Rainwise IP-100,2013-09-03 04:50:00,
2013-09-03 00:51:00,70.3,70.0,29.65,SW,225,6.5,11.0,100,0.00,,,0.00,Rainwise IP-100,2013-09-03 04:51:00,
2013-09-03 00:53:00,70.3,70.0,29.65,SW,225,9.6,10.0,100,0.00,,,0.00,Rainwise IP-100,2013-09-03 04:53:00,
2013-09-03 00:54:00,70.3,70.0,29.65,SW,225,7.0,10.0,100,0.00,,,0.00,Rainwise IP-100,2013-09-03 04:54:00,
2013-09-03 00:56:00,70.3,70.0,29.65,SW,225,7.5,10.0,100,0.00,,,0.00,Rainwise IP-100,2013-09-03 04:56:00,
2013-09-03 00:57:00,70.3,70.0,29.65,SW,225,7.0,9.0,100,0.00,,,0.00,Rainwise IP-100,2013-09-03 04:57:00,
2013-09-03 00:58:00,70.3,70.0,29.65,SW,225,7.7,9.0,100,0.00,,,0.00,Rainwise IP-100,2013-09-03 04:58:00,
2013-09-03 00:59:00,70.2,70.0,29.64,WSW,247,7.5,9.0,100,0.00,,,0.00,Rainwise IP-100,2013-09-03 04:59:00,
2013-09-03 01:01:00,70.2,70.0,29.64,SW,225,6.5,9.0,100,0.00,,,0.00,Rainwise IP-100,2013-09-03 05:01:00,
2013-09-03 01:02:00,70.1,70.0,29.64,SW,225,7.7,9.0,100,0.00,,,0.00,Rainwise IP-100,2013-09-03 05:02:00,
2013-09-03 01:03:00,70.1,70.0,29.64,SW,225,7.7,9.0,100,0.00,,,0.00,Rainwise IP-100,2013-09-03 05:03:00,
2013-09-03 01:04:00,70.1,70.0,29.64,SW,225,9.1,9.1,100,0.00,,,0.00,Rainwise IP-100,2013-09-03 05:04:00,
2013-09-03 01:06:00,70.0,70.0,29.64,SW,225,8.9,9.0,100,0.00,,,0.00,Rainwise IP-100,2013-09-03 05:06:00,
2013-09-03 01:08:00,70.0,70.0,29.64,SW,225,7.0,10.0,100,0.00,,,0.00,Rainwise IP-100,2013-09-03 05:08:00,
2013-09-03 01:09:00,70.0,70.0,29.64,SW,225,8.6,10.0,100,0.00,,,0.00,Rainwise IP-100,2013-09-03 05:09:00,
2013-09-03 01:10:00,69.9,70.0,29.64,SW,225,6.3,10.0,100,0.00,,,0.00,Rainwise IP-100,2013-09-03 05:10:00,
2013-09-03 01:11:00,69.9,70.0,29.65,SW,225,8.2,10.0,100,0.00,,,0.00,Rainwise IP-100,2013-09-03 05:11:00,
2013-09-03 01:13:00,69.9,70.0,29.65,WSW,247,8.2,9.0,100,0.00,,,0.00,Rainwise IP-100,2013-09-03 05:13:00,
2013-09-03 01:14:00,69.9,70.0,29.65,WSW,247,6.8,9.0,100,0.00,,,0.00,Rainwise IP-100,2013-09-03 05:14:00,
2013-09-03 01:15:00,69.9,70.0,29.65,WSW,247,6.5,9.0,100,0.00,,,0.00,Rainwise IP-100,2013-09-03 05:15:00,
2013-09-03 01:16:00,69.9,70.0,29.64,WSW,247,6.8,9.0,100,0.00,,,0.00,Rainwise IP-100,2013-09-03 05:16:00,
2013-09-03 01:19:00,69.8,69.0,29.65,WSW,247,6.8,8.0,100,0.00,,,0.00,Rainwise IP-100,2013-09-03 05:19:00,
2013-09-03 01:20:00,69.8,69.0,29.65,WSW,247,8.2,8.2,100,0.00,,,0.00,Rainwise IP-100,2013-09-03 05:20:00,
2013-09-03 01:22:00,69.8,69.0,29.65,WSW,247,5.1,8.0,100,0.00,,,0.00,Rainwise IP-100,2013-09-03 05:22:00,
2013-09-03 01:24:00,69.9,70.0,29.65,WSW,247,7.2,8.0,100,0.00,,,0.00,Rainwise IP-100,2013-09-03 05:24:00,
2013-09-03 01:25:00,69.8,69.0,29.65,WSW,247,6.5,8.0,100,0.00,,,0.00,Rainwise IP-100,2013-09-03 05:25:00,
2013-09-03 01:26:00,69.9,70.0,29.64,WSW,247,7.0,8.0,100,0.00,,,0.00,Rainwise IP-100,2013-09-03 05:26:00,
2013-09-03 01:27:00,69.9,70.0,29.64,WSW,247,7.2,8.0,100,0.00,,,0.00,Rainwise IP-100,2013-09-03 05:27:00,
2013-09-03 01:29:00,69.9,70.0,29.65,WSW,247,4.9,8.0,100,0.00,,,0.00,Rainwise IP-100,2013-09-03 05:29:00,
2013-09-03 01:30:00,69.9,70.0,29.64,WSW,247,6.1,8.0,100,0.00,,,0.00,Rainwise IP-100,2013-09-03 05:30:00,
2013-09-03 01:31:00,69.9,70.0,29.64,SW,225,7.5,8.0,100,0.00,,,0.00,Rainwise IP-100,2013-09-03 05:31:00,
2013-09-03 01:32:00,70.0,70.0,29.64,SW,225,7.9,8.0,100,0.00,,,0.00,Rainwise IP-100,2013-09-03 05:32:00,
2013-09-03 01:33:00,70.0,70.0,29.64,WSW,247,6.5,8.0,100,0.00,,,0.00,Rainwise IP-100,2013-09-03 05:33:00,
2013-09-03 01:34:00,70.0,70.0,29.64,SW,225,7.5,8.0,100,0.00,,,0.00,Rainwise IP-100,2013-09-03 05:34:00,
2013-09-03 01:36:00,70.0,70.0,29.64,WSW,247,8.9,11.0,100,0.00,,,0.00,Rainwise IP-100,2013-09-03 05:36:00,
2013-09-03 01:37:00,70.0,70.0,29.64,SW,225,9.3,11.0,100,0.00,,,0.00,Rainwise IP-100,2013-09-03 05:37:00,
2013-09-03 01:38:00,70.0,70.0,29.64,WSW,247,10.7,11.0,100,0.00,,,0.00,Rainwise IP-100,2013-09-03 05:38:00,
2013-09-03 01:39:00,70.0,70.0,29.64,SW,225,8.6,12.0,100,0.00,,,0.00,Rainwise IP-100,2013-09-03 05:39:00,
2013-09-03 01:41:00,70.0,70.0,29.64,SW,225,10.0,12.0,100,0.00,,,0.00,Rainwise IP-100,2013-09-03 05:41:00,
2013-09-03 01:43:00,70.0,70.0,29.64,SW,225,9.6,12.0,100,0.00,,,0.00,Rainwise IP-100,2013-09-03 05:43:00,
2013-09-03 01:44:00,69.9,70.0,29.64,WSW,247,9.3,11.0,100,0.00,,,0.00,Rainwise IP-100,2013-09-03 05:44:00,
2013-09-03 01:46:00,69.9,70.0,29.64,SW,225,9.8,11.0,100,0.00,,,0.00,Rainwise IP-100,2013-09-03 05:46:00,
2013-09-03 01:47:00,69.9,70.0,29.64,SW,225,9.3,11.0,100,0.00,,,0.00,Rainwise IP-100,2013-09-03 05:47:00,
2013-09-03 01:48:00,69.9,70.0,29.64,WSW,247,11.2,11.2,100,0.00,,,0.00,Rainwise IP-100,2013-09-03 05:48:00,
2013-09-03 01:50:00,69.9,70.0,29.64,SW,225,9.3,12.0,100,0.00,,,0.00,Rainwise IP-100,2013-09-03 05:50:00,
2013-09-03 01:52:00,69.9,70.0,29.64,WSW,247,10.3,12.0,100,0.00,,,0.00,Rainwise IP-100,2013-09-03 05:52:00,
2013-09-03 01:53:00,69.9,70.0,29.63,SW,225,10.7,12.0,100,0.00,,,0.00,Rainwise IP-100,2013-09-03 05:53:00,
2013-09-03 01:54:00,69.9,70.0,29.63,WSW,247,7.9,11.0,100,0.00,,,0.00,Rainwise IP-100,2013-09-03 05:54:00,
2013-09-03 01:55:00,69.9,70.0,29.63,SW,225,7.9,11.0,100,0.00,,,0.00,Rainwise IP-100,2013-09-03 05:55:00,
2013-09-03 01:58:00,70.0,70.0,29.63,SW,225,7.2,10.0,100,0.00,,,0.00,Rainwise IP-100,2013-09-03 05:58:00,
2013-09-03 01:59:00,70.0,70.0,29.64,WSW,247,7.2,11.0,100,0.00,,,0.00,Rainwise IP-100,2013-09-03 05:59:00,
2013-09-03 02:00:00,70.0,70.0,29.63,SW,225,6.5,11.0,100,0.00,,,0.00,Rainwise IP-100,2013-09-03 06:00:00,
2013-09-03 02:03:00,70.0,70.0,29.63,SW,225,9.8,11.0,100,0.00,,,0.00,Rainwise IP-100,2013-09-03 06:03:00,
2013-09-03 02:04:00,70.0,70.0,29.63,WSW,247,8.4,11.0,100,0.00,,,0.00,Rainwise IP-100,2013-09-03 06:04:00,
2013-09-03 02:05:00,70.0,70.0,29.63,WSW,247,7.5,11.0,100,0.00,,,0.00,Rainwise IP-100,2013-09-03 06:05:00,
2013-09-03 02:08:00,70.0,70.0,29.63,SW,225,10.3,11.0,100,0.00,,,0.00,Rainwise IP-100,2013-09-03 06:08:00,
2013-09-03 02:09:00,70.0,70.0,29.63,WSW,247,10.3,11.0,100,0.00,,,0.00,Rainwise IP-100,2013-09-03 06:09:00,
2013-09-03 02:10:00,70.0,70.0,29.63,SW,225,10.0,11.0,100,0.00,,,0.00,Rainwise IP-100,2013-09-03 06:10:00,
2013-09-03 02:11:00,69.9,70.0,29.62,SW,225,10.0,11.0,100,0.00,,,0.00,Rainwise IP-100,2013-09-03 06:11:00,
2013-09-03 02:14:00,69.9,70.0,29.63,WSW,247,7.9,11.0,100,0.00,,,0.00,Rainwise IP-100,2013-09-03 06:14:00,
2013-09-03 02:15:00,70.0,70.0,29.63,WSW,247,8.4,11.0,100,0.00,,,0.00,Rainwise IP-100,2013-09-03 06:15:00,
2013-09-03 02:16:00,70.0,70.0,29.63,WSW,247,8.9,11.0,100,0.00,,,0.00,Rainwise IP-100,2013-09-03 06:16:00,
2013-09-03 02:17:00,70.0,70.0,29.63,SW,225,8.6,11.0,100,0.00,,,0.00,Rainwise IP-100,2013-09-03 06:17:00,
2013-09-03 02:18:00,70.0,70.0,29.63,SW,225,8.6,11.0,100,0.00,,,0.00,Rainwise IP-100,2013-09-03 06:18:00,
2013-09-03 02:19:00,70.0,70.0,29.63,SW,225,8.6,11.0,100,0.00,,,0.00,Rainwise IP-100,2013-09-03 06:19:00,
2013-09-03 02:21:00,70.1,70.0,29.63,SW,225,11.0,11.0,100,0.00,,,0.00,Rainwise IP-100,2013-09-03 06:21:00,
2013-09-03 02:22:00,70.1,70.0,29.63,SW,225,11.0,11.0,100,0.00,,,0.01,Rainwise IP-100,2013-09-03 06:22:00,
2013-09-03 02:24:00,70.1,70.0,29.62,SW,225,10.0,13.0,100,0.06,,,0.01,Rainwise IP-100,2013-09-03 06:24:00,
2013-09-03 02:26:00,70.1,70.0,29.62,WSW,247,10.3,13.0,100,0.06,,,0.01,Rainwise IP-100,2013-09-03 06:26:00,
2013-09-03 02:27:00,70.1,70.0,29.63,WSW,247,10.5,13.0,100,0.06,,,0.01,Rainwise IP-100,2013-09-03 06:27:00,
2013-09-03 02:28:00,70.0,70.0,29.63,SW,225,9.1,13.0,100,0.06,,,0.01,Rainwise IP-100,2013-09-03 06:28:00,
2013-09-03 02:30:00,70.0,70.0,29.63,SW,225,10.0,13.0,100,0.06,,,0.01,Rainwise IP-100,2013-09-03 06:30:00,
2013-09-03 02:31:00,69.9,70.0,29.63,SW,225,10.7,13.0,100,0.06,,,0.01,Rainwise IP-100,2013-09-03 06:31:00,
2013-09-03 02:32:00,69.9,70.0,29.63,SW,225,9.1,13.0,100,0.06,,,0.01,Rainwise IP-100,2013-09-03 06:32:00,
2013-09-03 02:35:00,69.8,69.0,29.62,SW,225,11.4,14.0,100,0.00,,,0.01,Rainwise IP-100,2013-09-03 06:35:00,
2013-09-03 02:37:00,69.8,69.0,29.63,WSW,247,10.3,14.0,100,0.00,,,0.01,Rainwise IP-100,2013-09-03 06:37:00,
2013-09-03 02:38:00,69.8,69.0,29.63,WSW,247,9.8,14.0,100,0.00,,,0.01,Rainwise IP-100,2013-09-03 06:38:00,
2013-09-03 02:40:00,69.7,69.0,29.63,WSW,247,9.1,13.0,100,0.00,,,0.01,Rainwise IP-100,2013-09-03 06:40:00,
2013-09-03 02:42:00,69.7,69.0,29.63,WSW,247,11.9,13.0,100,0.00,,,0.01,Rainwise IP-100,2013-09-03 06:42:00,
2013-09-03 02:43:00,69.7,69.0,29.63,SW,225,11.4,13.0,100,0.00,,,0.01,Rainwise IP-100,2013-09-03 06:43:00,
2013-09-03 02:45:00,69.7,69.0,29.63,SW,225,11.2,13.0,100,0.00,,,0.01,Rainwise IP-100,2013-09-03 06:45:00,
2013-09-03 02:47:00,69.7,69.0,29.63,SW,225,9.6,13.0,100,0.00,,,0.01,Rainwise IP-100,2013-09-03 06:47:00,
2013-09-03 02:48:00,69.7,69.0,29.63,SW,225,10.7,13.0,100,0.00,,,0.01,Rainwise IP-100,2013-09-03 06:48:00,
2013-09-03 02:49:00,69.7,69.0,29.63,SW,225,8.6,12.0,100,0.00,,,0.01,Rainwise IP-100,2013-09-03 06:49:00,
2013-09-03 02:50:00,69.7,69.0,29.63,SW,225,11.7,12.0,100,0.00,,,0.01,Rainwise IP-100,2013-09-03 06:50:00,
2013-09-03 02:52:00,69.7,69.0,29.63,SW,225,10.3,12.0,100,0.00,,,0.01,Rainwise IP-100,2013-09-03 06:52:00,
2013-09-03 02:53:00,69.7,69.0,29.63,SW,225,8.6,12.0,100,0.00,,,0.01,Rainwise IP-100,2013-09-03 06:53:00,
2013-09-03 02:54:00,69.7,69.0,29.63,WSW,247,10.5,12.0,100,0.00,,,0.01,Rainwise IP-100,2013-09-03 06:54:00,
2013-09-03 02:55:00,69.7,69.0,29.62,WSW,247,8.4,12.0,100,0.00,,,0.01,Rainwise IP-100,2013-09-03 06:55:00,
2013-09-03 02:57:00,69.7,69.0,29.63,SW,225,8.6,12.0,100,0.00,,,0.01,Rainwise IP-100,2013-09-03 06:57:00,
2013-09-03 02:58:00,69.7,69.0,29.62,SW,225,9.8,12.0,100,0.00,,,0.01,Rainwise IP-100,2013-09-03 06:58:00,
2013-09-03 03:01:00,69.6,69.0,29.62,SW,225,8.6,10.0,100,0.00,,,0.01,Rainwise IP-100,2013-09-03 07:01:00,
2013-09-03 03:02:00,69.6,69.0,29.62,SW,225,7.9,10.0,100,0.00,,,0.01,Rainwise IP-100,2013-09-03 07:02:00,
2013-09-03 03:03:00,69.6,69.0,29.62,SW,225,9.3,10.0,100,0.00,,,0.01,Rainwise IP-100,2013-09-03 07:03:00,
2013-09-03 03:04:00,69.6,69.0,29.62,SW,225,7.0,10.0,100,0.00,,,0.01,Rainwise IP-100,2013-09-03 07:04:00,
2013-09-03 03:07:00,69.7,69.0,29.62,SW,225,9.8,11.0,100,0.00,,,0.01,Rainwise IP-100,2013-09-03 07:07:00,
2013-09-03 03:08:00,69.7,69.0,29.61,SW,225,8.4,11.0,100,0.00,,,0.01,Rainwise IP-100,2013-09-03 07:08:00,
2013-09-03 03:09:00,69.7,69.0,29.61,SW,225,9.3,11.0,100,0.00,,,0.01,Rainwise IP-100,2013-09-03 07:09:00,
2013-09-03 03:12:00,69.7,69.0,29.61,SW,225,11.4,11.4,100,0.00,,,0.01,Rainwise IP-100,2013-09-03 07:12:00,
2013-09-03 03:13:00,69.6,69.0,29.61,SW,225,10.5,11.0,100,0.00,,,0.01,Rainwise IP-100,2013-09-03 07:13:00,
2013-09-03 03:14:00,69.6,69.0,29.61,SW,225,10.0,11.0,100,0.00,,,0.01,Rainwise IP-100,2013-09-03 07:14:00,
2013-09-03 03:15:00,69.6,69.0,29.61,SW,225,11.7,13.0,100,0.00,,,0.01,Rainwise IP-100,2013-09-03 07:15:00,
2013-09-03 03:18:00,69.5,69.0,29.60,SSW,202,8.4,15.0,100,0.00,,,0.01,Rainwise IP-100,2013-09-03 07:18:00,
2013-09-03 03:19:00,69.5,69.0,29.60,SSW,202,12.4,15.0,100,0.00,,,0.01,Rainwise IP-100,2013-09-03 07:19:00,
2013-09-03 03:21:00,69.4,69.0,29.60,SW,225,13.1,15.0,100,0.00,,,0.01,Rainwise IP-100,2013-09-03 07:21:00,
2013-09-03 03:24:00,69.3,69.0,29.60,SSW,202,11.4,14.0,100,0.00,,,0.01,Rainwise IP-100,2013-09-03 07:24:00,
2013-09-03 03:26:00,69.1,69.0,29.60,SSW,202,7.5,13.0,100,0.00,,,0.01,Rainwise IP-100,2013-09-03 07:26:00,
2013-09-03 03:27:00,69.1,69.0,29.60,SSW,202,8.2,13.0,100,0.00,,,0.01,Rainwise IP-100,2013-09-03 07:27:00,
2013-09-03 03:29:00,69.0,69.0,29.60,SSW,202,11.7,12.0,100,0.00,,,0.01,Rainwise IP-100,2013-09-03 07:29:00,
2013-09-03 03:30:00,68.9,69.0,29.60,SSW,202,10.0,13.0,100,0.00,,,0.01,Rainwise IP-100,2013-09-03 07:30:00,
2013-09-03 03:32:00,68.9,69.0,29.60,SW,225,10.3,13.0,100,0.00,,,0.01,Rainwise IP-100,2013-09-03 07:32:00,
2013-09-03 03:34:00,68.9,69.0,29.60,SSW,202,12.1,14.0,100,0.00,,,0.01,Rainwise IP-100,2013-09-03 07:34:00,
2013-09-03 03:35:00,68.9,69.0,29.60,SW,225,12.8,14.0,100,0.00,,,0.01,Rainwise IP-100,2013-09-03 07:35:00,
2013-09-03 03:37:00,68.9,69.0,29.60,SSW,202,11.9,15.0,100,0.00,,,0.01,Rainwise IP-100,2013-09-03 07:37:00,
2013-09-03 03:38:00,68.9,69.0,29.60,SSW,202,11.2,15.0,100,0.00,,,0.01,Rainwise IP-100,2013-09-03 07:38:00,
2013-09-03 03:39:00,68.9,69.0,29.59,SSW,202,11.2,15.0,100,0.00,,,0.01,Rainwise IP-100,2013-09-03 07:39:00,
2013-09-03 03:40:00,68.9,69.0,29.60,SSW,202,13.1,15.0,100,0.00,,,0.01,Rainwise IP-100,2013-09-03 07:40:00,
2013-09-03 03:42:00,68.8,68.0,29.59,SW,225,12.4,14.0,100,0.00,,,0.01,Rainwise IP-100,2013-09-03 07:42:00,
2013-09-03 03:44:00,68.8,68.0,29.60,SW,225,12.6,14.0,100,0.00,,,0.01,Rainwise IP-100,2013-09-03 07:44:00,
2013-09-03 03:45:00,68.8,68.0,29.60,SW,225,11.2,14.0,100,0.00,,,0.01,Rainwise IP-100,2013-09-03 07:45:00,
2013-09-03 03:46:00,68.8,68.0,29.59,SW,225,13.8,14.0,100,0.00,,,0.01,Rainwise IP-100,2013-09-03 07:46:00,
2013-09-03 03:48:00,68.8,68.0,29.59,SSW,202,11.9,15.0,100,0.00,,,0.01,Rainwise IP-100,2013-09-03 07:48:00,
2013-09-03 03:49:00,68.8,68.0,29.59,SSW,202,13.5,15.0,100,0.00,,,0.01,Rainwise IP-100,2013-09-03 07:49:00,
2013-09-03 03:51:00,68.8,68.0,29.59,SW,225,13.3,15.0,100,0.00,,,0.01,Rainwise IP-100,2013-09-03 07:51:00,
2013-09-03 03:52:00,68.9,69.0,29.59,SSW,202,14.0,15.0,100,0.00,,,0.01,Rainwise IP-100,2013-09-03 07:52:00,
2013-09-03 03:54:00,68.8,68.0,29.59,SSW,202,15.4,15.4,100,0.00,,,0.01,Rainwise IP-100,2013-09-03 07:54:00,
2013-09-03 03:55:00,68.8,68.0,29.59,SW,225,11.9,15.0,100,0.00,,,0.01,Rainwise IP-100,2013-09-03 07:55:00,
2013-09-03 03:56:00,68.8,68.0,29.59,SSW,202,11.0,15.0,100,0.00,,,0.01,Rainwise IP-100,2013-09-03 07:56:00,
2013-09-03 03:58:00,68.8,68.0,29.59,SSW,202,12.8,15.0,100,0.00,,,0.01,Rainwise IP-100,2013-09-03 07:58:00,
2013-09-03 03:59:00,68.8,68.0,29.59,SSW,202,12.8,15.0,100,0.00,,,0.01,Rainwise IP-100,2013-09-03 07:59:00,
2013-09-03 04:00:00,68.8,68.0,29.59,SSW,202,12.8,15.0,100,0.00,,,0.01,Rainwise IP-100,2013-09-03 08:00:00,
2013-09-03 04:01:00,68.8,68.0,29.59,SW,225,14.5,15.0,100,0.00,,,0.01,Rainwise IP-100,2013-09-03 08:01:00,
2013-09-03 04:03:00,68.8,68.0,29.59,SSW,202,13.8,15.0,100,0.00,,,0.01,Rainwise IP-100,2013-09-03 08:03:00,
2013-09-03 04:04:00,68.7,68.0,29.59,SSW,202,11.7,15.0,100,0.00,,,0.01,Rainwise IP-100,2013-09-03 08:04:00,
2013-09-03 04:05:00,68.7,68.0,29.59,SSW,202,14.5,15.0,100,0.00,,,0.01,Rainwise IP-100,2013-09-03 08:05:00,
2013-09-03 04:06:00,68.7,68.0,29.59,SSW,202,11.9,14.0,100,0.00,,,0.01,Rainwise IP-100,2013-09-03 08:06:00,
2013-09-03 04:10:00,68.8,68.0,29.59,SW,225,10.3,15.0,100,0.00,,,0.01,Rainwise IP-100,2013-09-03 08:10:00,
2013-09-03 04:11:00,68.8,68.0,29.59,SW,225,13.1,15.0,100,0.00,,,0.01,Rainwise IP-100,2013-09-03 08:11:00,
2013-09-03 04:12:00,68.8,68.0,29.59,SSW,202,12.4,15.0,100,0.00,,,0.01,Rainwise IP-100,2013-09-03 08:12:00,
2013-09-03 04:16:00,68.8,68.0,29.59,SSW,202,13.8,15.0,100,0.00,,,0.01,Rainwise IP-100,2013-09-03 08:16:00,
2013-09-03 04:17:00,68.9,69.0,29.59,SSW,202,14.7,15.0,100,0.00,,,0.01,Rainwise IP-100,2013-09-03 08:17:00,
2013-09-03 04:18:00,68.9,69.0,29.59,SSW,202,14.5,15.0,100,0.00,,,0.01,Rainwise IP-100,2013-09-03 08:18:00,
2013-09-03 04:21:00,68.9,69.0,29.59,SW,225,16.1,16.1,100,0.00,,,0.01,Rainwise IP-100,2013-09-03 08:21:00,
2013-09-03 04:22:00,68.9,69.0,29.59,SSW,202,14.2,17.0,100,0.00,,,0.01,Rainwise IP-100,2013-09-03 08:22:00,
2013-09-03 04:23:00,68.9,69.0,29.59,SW,225,15.9,17.0,100,0.00,,,0.01,Rainwise IP-100,2013-09-03 08:23:00,
2013-09-03 04:26:00,68.9,69.0,29.59,SSW,202,14.9,17.0,100,0.00,,,0.01,Rainwise IP-100,2013-09-03 08:26:00,
2013-09-03 04:27:00,68.9,69.0,29.59,SSW,202,16.1,17.0,100,0.00,,,0.01,Rainwise IP-100,2013-09-03 08:27:00,
2013-09-03 04:28:00,68.9,69.0,29.59,SSW,202,12.6,17.0,100,0.00,,,0.01,Rainwise IP-100,2013-09-03 08:28:00,
2013-09-03 04:29:00,68.9,69.0,29.60,SSW,202,10.0,16.0,100,0.00,,,0.01,Rainwise IP-100,2013-09-03 08:29:00,
2013-09-03 04:32:00,68.9,69.0,29.59,SSW,202,12.6,16.0,100,0.00,,,0.01,Rainwise IP-100,2013-09-03 08:32:00,
2013-09-03 04:34:00,68.9,69.0,29.59,SSW,202,11.0,15.0,100,0.00,,,0.01,Rainwise IP-100,2013-09-03 08:34:00,
2013-09-03 04:37:00,68.9,69.0,29.60,SSW,202,8.2,14.0,100,0.00,,,0.01,Rainwise IP-100,2013-09-03 08:37:00,
2013-09-03 04:40:00,68.9,69.0,29.60,SSW,202,13.3,15.0,100,0.00,,,0.01,Rainwise IP-100,2013-09-03 08:40:00,
2013-09-03 04:42:00,68.9,69.0,29.60,SSW,202,10.3,15.0,100,0.00,,,0.01,Rainwise IP-100,2013-09-03 08:42:00,
2013-09-03 04:43:00,68.9,69.0,29.60,SSW,202,9.8,15.0,100,0.00,,,0.01,Rainwise IP-100,2013-09-03 08:43:00,
2013-09-03 04:45:00,68.9,69.0,29.59,SW,225,7.7,13.0,100,0.00,,,0.01,Rainwise IP-100,2013-09-03 08:45:00,
2013-09-03 04:46:00,68.9,69.0,29.59,SSW,202,12.4,14.0,100,0.00,,,0.01,Rainwise IP-100,2013-09-03 08:46:00,
2013-09-03 04:47:00,68.9,69.0,29.60,SW,225,10.5,14.0,100,0.00,,,0.01,Rainwise IP-100,2013-09-03 08:47:00,
2013-09-03 04:48:00,68.9,69.0,29.60,SSW,202,9.1,14.0,100,0.00,,,0.01,Rainwise IP-100,2013-09-03 08:48:00,
2013-09-03 04:49:00,68.9,69.0,29.60,SSW,202,13.1,14.0,100,0.00,,,0.01,Rainwise IP-100,2013-09-03 08:49:00,
2013-09-03 04:51:00,69.0,69.0,29.59,SSW,202,8.2,14.0,100,0.00,,,0.01,Rainwise IP-100,2013-09-03 08:51:00,
2013-09-03 04:52:00,69.0,69.0,29.59,SSW,202,9.1,14.0,100,0.00,,,0.01,Rainwise IP-100,2013-09-03 08:52:00,
2013-09-03 04:53:00,69.0,69.0,29.59,SSW,202,13.8,14.0,100,0.00,,,0.01,Rainwise IP-100,2013-09-03 08:53:00,
2013-09-03 04:56:00,69.1,69.0,29.59,SSW,202,10.7,13.0,100,0.00,,,0.01,Rainwise IP-100,2013-09-03 08:56:00,
2013-09-03 04:57:00,69.1,69.0,29.59,SSW,202,10.3,13.0,100,0.00,,,0.01,Rainwise IP-100,2013-09-03 08:57:00,
2013-09-03 04:58:00,69.1,69.0,29.59,SW,225,11.2,13.0,100,0.00,,,0.01,Rainwise IP-100,2013-09-03 08:58:00,
2013-09-03 05:01:00,69.2,69.0,29.59,SW,225,11.7,13.0,100,0.00,,,0.01,Rainwise IP-100,2013-09-03 09:01:00,
2013-09-03 05:02:00,69.2,69.0,29.59,SSW,202,13.5,13.5,100,0.00,,,0.01,Rainwise IP-100,2013-09-03 09:02:00,
2013-09-03 05:03:00,69.2,69.0,29.60,SSW,202,11.2,13.0,100,0.00,,,0.01,Rainwise IP-100,2013-09-03 09:03:00,
2013-09-03 05:07:00,69.3,69.0,29.60,SSW,202,10.7,14.0,100,0.00,,,0.01,Rainwise IP-100,2013-09-03 09:07:00,
2013-09-03 05:08:00,69.3,69.0,29.60,SSW,202,11.4,14.0,100,0.00,,,0.01,Rainwise IP-100,2013-09-03 09:08:00,
2013-09-03 05:09:00,69.3,69.0,29.59,SW,225,11.2,14.0,100,0.00,,,0.01,Rainwise IP-100,2013-09-03 09:09:00,
2013-09-03 05:13:00,69.4,69.0,29.60,SW,225,11.2,14.0,100,0.00,,,0.01,Rainwise IP-100,2013-09-03 09:13:00,
2013-09-03 05:14:00,69.4,69.0,29.60,SW,225,10.5,13.0,100,0.00,,,0.01,Rainwise IP-100,2013-09-03 09:14:00,
2013-09-03 05:15:00,69.4,69.0,29.60,SW,225,12.6,14.0,100,0.00,,,0.01,Rainwise IP-100,2013-09-03 09:15:00,
2013-09-03 05:18:00,69.4,69.0,29.60,SW,225,11.9,14.0,100,0.00,,,0.01,Rainwise IP-100,2013-09-03 09:18:00,
2013-09-03 05:19:00,69.5,69.0,29.60,SW,225,13.8,14.0,100,0.00,,,0.01,Rainwise IP-100,2013-09-03 09:19:00,
2013-09-03 05:20:00,69.5,69.0,29.60,SW,225,13.5,15.0,100,0.00,,,0.01,Rainwise IP-100,2013-09-03 09:20:00,
2013-09-03 05:22:00,69.5,69.0,29.60,SW,225,14.0,15.0,100,0.00,,,0.01,Rainwise IP-100,2013-09-03 09:22:00,
2013-09-03 05:23:00,69.6,69.0,29.61,SW,225,15.9,17.0,100,0.00,,,0.01,Rainwise IP-100,2013-09-03 09:23:00,
2013-09-03 05:24:00,69.6,69.0,29.61,SW,225,13.1,17.0,100,0.00,,,0.01,Rainwise IP-100,2013-09-03 09:24:00,
2013-09-03 05:25:00,69.6,69.0,29.61,SW,225,12.1,17.0,100,0.00,,,0.01,Rainwise IP-100,2013-09-03 09:25:00,
2013-09-03 05:27:00,69.6,69.0,29.61,SW,225,13.5,17.0,100,0.00,,,0.01,Rainwise IP-100,2013-09-03 09:27:00,
2013-09-03 05:28:00,69.6,69.0,29.61,SW,225,13.1,16.0,100,0.00,,,0.01,Rainwise IP-100,2013-09-03 09:28:00,
2013-09-03 05:29:00,69.6,69.0,29.61,SW,225,13.3,15.0,100,0.00,,,0.01,Rainwise IP-100,2013-09-03 09:29:00,
2013-09-03 05:30:00,69.6,69.0,29.61,SW,225,13.5,15.0,100,0.00,,,0.01,Rainwise IP-100,2013-09-03 09:30:00,
2013-09-03 05:34:00,69.6,69.0,29.61,SW,225,12.1,16.0,100,0.00,,,0.01,Rainwise IP-100,2013-09-03 09:34:00,
2013-09-03 05:35:00,69.6,69.0,29.61,SW,225,12.4,16.0,100,0.00,,,0.01,Rainwise IP-100,2013-09-03 09:35:00,
2013-09-03 05:36:00,69.6,69.0,29.61,SW,225,12.8,16.0,100,0.00,,,0.01,Rainwise IP-100,2013-09-03 09:36:00,
2013-09-03 05:39:00,69.6,69.0,29.61,SW,225,11.4,15.0,100,0.00,,,0.01,Rainwise IP-100,2013-09-03 09:39:00,
2013-09-03 05:40:00,69.6,69.0,29.61,SW,225,13.8,15.0,100,0.00,,,0.01,Rainwise IP-100,2013-09-03 09:40:00,
2013-09-03 05:41:00,69.7,69.0,29.62,SW,225,10.7,15.0,100,0.00,,,0.01,Rainwise IP-100,2013-09-03 09:41:00,
2013-09-03 05:44:00,69.7,69.0,29.62,SW,225,12.4,14.0,100,0.00,,,0.01,Rainwise IP-100,2013-09-03 09:44:00,
2013-09-03 05:45:00,69.7,69.0,29.61,SW,225,11.9,14.0,100,0.00,,,0.01,Rainwise IP-100,2013-09-03 09:45:00,
2013-09-03 05:46:00,69.7,69.0,29.61,SW,225,13.1,14.0,100,0.00,,,0.01,Rainwise IP-100,2013-09-03 09:46:00,
2013-09-03 05:47:00,69.7,69.0,29.61,SW,225,14.0,15.0,100,0.00,,,0.01,Rainwise IP-100,2013-09-03 09:47:00,
2013-09-03 05:49:00,69.7,69.0,29.62,SW,225,14.7,15.0,100,0.00,,,0.01,Rainwise IP-100,2013-09-03 09:49:00,
2013-09-03 05:50:00,69.7,69.0,29.62,SW,225,13.5,15.0,100,0.00,,,0.01,Rainwise IP-100,2013-09-03 09:50:00,
2013-09-03 05:51:00,69.7,69.0,29.62,SW,225,11.4,15.0,100,0.00,,,0.01,Rainwise IP-100,2013-09-03 09:51:00,
2013-09-03 05:52:00,69.7,69.0,29.62,SW,225,13.1,15.0,100,0.00,,,0.01,Rainwise IP-100,2013-09-03 09:52:00,
2013-09-03 05:54:00,69.7,69.0,29.62,SW,225,14.0,14.0,100,0.00,,,0.01,Rainwise IP-100,2013-09-03 09:54:00,
2013-09-03 05:55:00,69.7,69.0,29.62,SW,225,11.7,14.0,100,0.00,,,0.01,Rainwise IP-100,2013-09-03 09:55:00,
2013-09-03 05:56:00,69.6,69.0,29.62,SW,225,12.1,14.0,100,0.00,,,0.01,Rainwise IP-100,2013-09-03 09:56:00,
2013-09-03 05:57:00,69.6,69.0,29.62,SW,225,10.5,14.0,100,0.00,,,0.01,Rainwise IP-100,2013-09-03 09:57:00,
2013-09-03 05:58:00,69.6,69.0,29.62,SW,225,10.3,14.0,100,0.00,,,0.01,Rainwise IP-100,2013-09-03 09:58:00,
2013-09-03 06:00:00,69.6,69.0,29.62,SW,225,12.1,14.0,100,0.00,,,0.01,Rainwise IP-100,2013-09-03 10:00:00,
2013-09-03 06:02:00,69.5,69.0,29.62,SSW,202,11.7,14.0,100,0.00,,,0.01,Rainwise IP-100,2013-09-03 10:02:00,
2013-09-03 06:03:00,69.5,69.0,29.62,SW,225,11.4,14.0,100,0.00,,,0.01,Rainwise IP-100,2013-09-03 10:03:00,
2013-09-03 06:05:00,69.5,69.0,29.63,SW,225,11.7,14.0,100,0.00,,,0.01,Rainwise IP-100,2013-09-03 10:05:00,
2013-09-03 06:07:00,69.5,69.0,29.63,SW,225,11.4,14.0,100,0.00,,,0.01,Rainwise IP-100,2013-09-03 10:07:00,
2013-09-03 06:08:00,69.5,69.0,29.63,SW,225,12.4,14.0,100,0.00,,,0.01,Rainwise IP-100,2013-09-03 10:08:00,
2013-09-03 06:10:00,69.6,69.0,29.63,SW,225,13.3,14.0,100,0.00,,,0.01,Rainwise IP-100,2013-09-03 10:10:00,
2013-09-03 06:13:00,69.6,69.0,29.63,SSW,202,9.8,14.0,100,0.00,,,0.01,Rainwise IP-100,2013-09-03 10:13:00,
2013-09-03 06:14:00,69.6,69.0,29.63,SW,225,11.0,14.0,100,0.00,,,0.01,Rainwise IP-100,2013-09-03 10:14:00,
2013-09-03 06:15:00,69.6,69.0,29.63,SSW,202,12.8,14.0,100,0.00,,,0.01,Rainwise IP-100,2013-09-03 10:15:00,
2013-09-03 06:16:00,69.6,69.0,29.63,SW,225,10.0,14.0,100,0.00,,,0.01,Rainwise IP-100,2013-09-03 10:16:00,
2013-09-03 06:18:00,69.6,69.0,29.63,SSW,202,11.7,15.0,100,0.00,,,0.01,Rainwise IP-100,2013-09-03 10:18:00,
2013-09-03 06:19:00,69.6,69.0,29.63,SSW,202,10.3,15.0,100,0.00,,,0.01,Rainwise IP-100,2013-09-03 10:19:00,
2013-09-03 06:20:00,69.6,69.0,29.62,SSW,202,10.5,15.0,100,0.00,,,0.01,Rainwise IP-100,2013-09-03 10:20:00,
2013-09-03 06:21:00,69.6,69.0,29.62,SW,225,9.8,15.0,100,0.00,,,0.01,Rainwise IP-100,2013-09-03 10:21:00,
2013-09-03 06:24:00,69.6,69.0,29.63,SW,225,13.3,14.0,100,0.00,,,0.01,Rainwise IP-100,2013-09-03 10:24:00,
2013-09-03 06:25:00,69.6,69.0,29.63,SW,225,11.4,14.0,100,0.00,,,0.01,Rainwise IP-100,2013-09-03 10:25:00,
2013-09-03 06:26:00,69.6,69.0,29.63,SSW,202,10.7,14.0,100,0.00,,,0.01,Rainwise IP-100,2013-09-03 10:26:00,
2013-09-03 06:30:00,69.5,69.0,29.63,SW,225,10.0,14.0,100,0.00,,,0.01,Rainwise IP-100,2013-09-03 10:30:00,
2013-09-03 06:31:00,69.5,69.0,29.63,SW,225,10.0,14.0,100,0.00,,,0.01,Rainwise IP-100,2013-09-03 10:31:00,
2013-09-03 06:32:00,69.4,69.0,29.63,SW,225,9.3,14.0,100,0.00,,,0.01,Rainwise IP-100,2013-09-03 10:32:00,
2013-09-03 06:35:00,69.4,69.0,29.63,SW,225,8.2,13.0,100,0.00,,,0.01,Rainwise IP-100,2013-09-03 10:35:00,
2013-09-03 06:36:00,69.4,69.0,29.63,SW,225,6.5,11.0,100,0.00,,,0.01,Rainwise IP-100,2013-09-03 10:36:00,
2013-09-03 06:37:00,69.4,69.0,29.63,SW,225,8.4,11.0,100,0.00,,,0.01,Rainwise IP-100,2013-09-03 10:37:00,
2013-09-03 06:41:00,69.3,69.0,29.63,WSW,247,6.8,10.0,100,0.00,,,0.01,Rainwise IP-100,2013-09-03 10:41:00,
2013-09-03 06:42:00,69.3,69.0,29.63,WSW,247,6.5,10.0,100,0.00,,,0.01,Rainwise IP-100,2013-09-03 10:42:00,
2013-09-03 06:43:00,69.3,69.0,29.63,WSW,247,5.8,9.0,100,0.00,,,0.01,Rainwise IP-100,2013-09-03 10:43:00,
2013-09-03 06:46:00,69.2,69.0,29.64,WSW,247,7.7,10.0,100,0.00,,,0.01,Rainwise IP-100,2013-09-03 10:46:00,
2013-09-03 06:47:00,69.2,69.0,29.64,WSW,247,8.2,10.0,100,0.00,,,0.01,Rainwise IP-100,2013-09-03 10:47:00,
2013-09-03 06:48:00,69.2,69.0,29.64,SW,225,7.2,10.0,100,0.00,,,0.01,Rainwise IP-100,2013-09-03 10:48:00,
2013-09-03 06:49:00,69.2,69.0,29.64,WSW,247,7.2,10.0,100,0.00,,,0.01,Rainwise IP-100,2013-09-03 10:49:00,
2013-09-03 06:52:00,69.2,69.0,29.64,WSW,247,9.1,9.1,100,0.00,,,0.01,Rainwise IP-100,2013-09-03 10:52:00,
2013-09-03 06:53:00,69.1,69.0,29.64,WSW,247,8.4,9.0,100,0.00,,,0.01,Rainwise IP-100,2013-09-03 10:53:00,
2013-09-03 06:54:00,69.1,69.0,29.64,WSW,247,4.4,9.0,100,0.00,,,0.01,Rainwise IP-100,2013-09-03 10:54:00,
2013-09-03 06:56:00,69.1,69.0,29.64,West,270,5.6,11.0,100,0.00,,,0.01,Rainwise IP-100,2013-09-03 10:56:00,
2013-09-03 06:58:00,69.1,69.0,29.64,WSW,247,7.0,11.0,100,0.00,,,0.01,Rainwise IP-100,2013-09-03 10:58:00,
2013-09-03 06:59:00,69.1,69.0,29.64,West,270,4.2,11.0,100,0.00,,,0.01,Rainwise IP-100,2013-09-03 10:59:00,
2013-09-03 07:03:00,69.1,69.0,29.64,WSW,247,7.2,9.0,100,0.00,,,0.01,Rainwise IP-100,2013-09-03 11:03:00,
2013-09-03 07:04:00,69.1,69.0,29.65,WSW,247,9.3,9.3,100,0.00,,,0.01,Rainwise IP-100,2013-09-03 11:04:00,
2013-09-03 07:06:00,69.2,69.0,29.65,West,270,7.9,10.0,100,0.00,,,0.01,Rainwise IP-100,2013-09-03 11:06:00,
2013-09-03 07:08:00,69.3,69.0,29.64,WSW,247,7.2,10.0,100,0.00,,,0.01,Rainwise IP-100,2013-09-03 11:08:00,
2013-09-03 07:09:00,69.3,69.0,29.65,WSW,247,6.8,10.0,100,0.00,,,0.01,Rainwise IP-100,2013-09-03 11:09:00,
2013-09-03 07:10:00,69.3,69.0,29.65,West,270,6.5,9.0,100,0.00,,,0.01,Rainwise IP-100,2013-09-03 11:10:00,
2013-09-03 07:11:00,69.4,69.0,29.65,WSW,247,6.1,9.0,100,0.00,,,0.01,Rainwise IP-100,2013-09-03 11:11:00,
2013-09-03 07:12:00,69.4,69.0,29.65,WSW,247,4.4,9.0,100,0.00,,,0.01,Rainwise IP-100,2013-09-03 11:12:00,
2013-09-03 07:14:00,69.4,69.0,29.65,WSW,247,6.1,9.0,100,0.00,,,0.01,Rainwise IP-100,2013-09-03 11:14:00,
2013-09-03 07:15:00,69.4,69.0,29.65,West,270,4.0,8.0,100,0.00,,,0.01,Rainwise IP-100,2013-09-03 11:15:00,
2013-09-03 07:17:00,69.4,69.0,29.65,WSW,247,6.3,8.0,100,0.00,,,0.01,Rainwise IP-100,2013-09-03 11:17:00,
2013-09-03 07:18:00,69.4,69.0,29.65,WSW,247,6.3,8.0,100,0.00,,,0.01,Rainwise IP-100,2013-09-03 11:18:00,
2013-09-03 07:19:00,69.4,69.0,29.65,West,270,4.9,8.0,100,0.00,,,0.01,Rainwise IP-100,2013-09-03 11:19:00,
2013-09-03 07:20:00,69.4,69.0,29.65,West,270,6.3,8.0,100,0.00,,,0.01,Rainwise IP-100,2013-09-03 11:20:00,
2013-09-03 07:22:00,69.5,69.0,29.65,West,270,4.7,8.0,100,0.00,,,0.01,Rainwise IP-100,2013-09-03 11:22:00,
2013-09-03 07:23:00,69.5,69.0,29.66,WNW,292,4.4,8.0,100,0.00,,,0.01,Rainwise IP-100,2013-09-03 11:23:00,
2013-09-03 07:24:00,69.5,69.0,29.66,WSW,247,5.8,7.0,100,0.00,,,0.01,Rainwise IP-100,2013-09-03 11:24:00,
2013-09-03 07:25:00,69.5,69.0,29.65,West,270,6.5,7.0,100,0.00,,,0.01,Rainwise IP-100,2013-09-03 11:25:00,
2013-09-03 07:28:00,69.5,69.0,29.65,WNW,292,4.7,7.0,100,0.00,,,0.01,Rainwise IP-100,2013-09-03 11:28:00,
2013-09-03 07:29:00,69.5,69.0,29.65,WNW,292,1.6,7.0,100,0.00,,,0.01,Rainwise IP-100,2013-09-03 11:29:00,
2013-09-03 07:30:00,69.5,69.0,29.65,WNW,292,3.3,6.0,100,0.00,,,0.01,Rainwise IP-100,2013-09-03 11:30:00,
2013-09-03 07:31:00,69.5,69.0,29.65,WNW,292,5.4,6.0,100,0.00,,,0.01,Rainwise IP-100,2013-09-03 11:31:00,
2013-09-03 07:33:00,69.5,69.0,29.65,WSW,247,3.3,6.0,100,0.00,,,0.01,Rainwise IP-100,2013-09-03 11:33:00,
2013-09-03 07:34:00,69.5,69.0,29.65,SW,225,4.9,6.0,100,0.00,,,0.01,Rainwise IP-100,2013-09-03 11:34:00,
2013-09-03 07:35:00,69.5,69.0,29.65,WSW,247,4.9,6.0,100,0.00,,,0.01,Rainwise IP-100,2013-09-03 11:35:00,
2013-09-03 07:36:00,69.5,69.0,29.65,WSW,247,8.6,9.0,100,0.00,,,0.01,Rainwise IP-100,2013-09-03 11:36:00,
2013-09-03 07:38:00,69.6,69.0,29.65,WSW,247,6.3,9.0,100,0.00,,,0.01,Rainwise IP-100,2013-09-03 11:38:00,
2013-09-03 07:39:00,69.6,69.0,29.65,West,270,6.8,9.0,100,0.00,,,0.01,Rainwise IP-100,2013-09-03 11:39:00,
2013-09-03 07:40:00,69.6,69.0,29.65,West,270,5.8,9.0,100,0.00,,,0.01,Rainwise IP-100,2013-09-03 11:40:00,
2013-09-03 07:41:00,69.6,69.0,29.65,WSW,247,6.3,8.0,100,0.00,,,0.01,Rainwise IP-100,2013-09-03 11:41:00,
2013-09-03 07:45:00,69.7,69.0,29.66,NW,315,4.7,7.0,100,0.00,,,0.01,Rainwise IP-100,2013-09-03 11:45:00,
2013-09-03 07:46:00,69.7,69.0,29.66,WNW,292,5.8,7.0,100,0.00,,,0.01,Rainwise IP-100,2013-09-03 11:46:00,
2013-09-03 07:47:00,69.7,69.0,29.66,WNW,292,5.4,7.0,100,0.00,,,0.01,Rainwise IP-100,2013-09-03 11:47:00,
2013-09-03 07:50:00,69.7,69.0,29.66,WNW,292,4.9,7.0,100,0.00,,,0.01,Rainwise IP-100,2013-09-03 11:50:00,
2013-09-03 07:51:00,69.7,69.0,29.66,WNW,292,3.0,7.0,100,0.00,,,0.01,Rainwise IP-100,2013-09-03 11:51:00,
2013-09-03 07:53:00,69.7,69.0,29.66,West,270,2.3,7.0,100,0.00,,,0.01,Rainwise IP-100,2013-09-03 11:53:00,
2013-09-03 07:55:00,69.8,69.0,29.67,WNW,292,7.0,7.0,100,0.00,,,0.01,Rainwise IP-100,2013-09-03 11:55:00,
2013-09-03 07:56:00,69.8,69.0,29.66,West,270,5.1,7.0,100,0.00,,,0.01,Rainwise IP-100,2013-09-03 11:56:00,
2013-09-03 07:57:00,69.8,69.0,29.67,West,270,4.4,7.0,100,0.00,,,0.01,Rainwise IP-100,2013-09-03 11:57:00,
2013-09-03 07:58:00,69.8,69.0,29.66,West,270,5.6,7.0,100,0.00,,,0.01,Rainwise IP-100,2013-09-03 11:58:00,
2013-09-03 07:59:00,69.8,69.0,29.67,SW,225,3.0,7.0,100,0.00,,,0.01,Rainwise IP-100,2013-09-03 11:59:00,
2013-09-03 08:00:00,69.8,69.0,29.67,WSW,247,4.0,7.0,100,0.00,,,0.01,Rainwise IP-100,2013-09-03 12:00:00,
2013-09-03 08:01:00,69.8,69.0,29.66,SW,225,6.8,8.0,100,0.00,,,0.01,Rainwise IP-100,2013-09-03 12:01:00,
2013-09-03 08:02:00,69.8,69.0,29.66,SW,225,6.1,9.0,100,0.00,,,0.01,Rainwise IP-100,2013-09-03 12:02:00,
2013-09-03 08:04:00,69.9,70.0,29.65,SW,225,7.0,9.0,100,0.00,,,0.01,Rainwise IP-100,2013-09-03 12:04:00,
2013-09-03 08:05:00,69.9,70.0,29.66,SW,225,7.5,9.0,100,0.00,,,0.01,Rainwise IP-100,2013-09-03 12:05:00,
2013-09-03 08:06:00,69.9,70.0,29.66,WSW,247,5.6,9.0,100,0.00,,,0.01,Rainwise IP-100,2013-09-03 12:06:00,
2013-09-03 08:08:00,69.9,70.0,29.66,WSW,247,6.5,9.0,100,0.00,,,0.01,Rainwise IP-100,2013-09-03 12:08:00,
2013-09-03 08:09:00,69.9,70.0,29.66,NW,315,5.4,9.0,100,0.00,,,0.01,Rainwise IP-100,2013-09-03 12:09:00,
2013-09-03 08:10:00,69.9,70.0,29.66,WNW,292,6.1,8.0,100,0.00,,,0.01,Rainwise IP-100,2013-09-03 12:10:00,
2013-09-03 08:11:00,70.0,70.0,29.67,WNW,292,4.7,7.0,100,0.00,,,0.01,Rainwise IP-100,2013-09-03 12:11:00,
2013-09-03 08:14:00,70.1,70.0,29.67,West,270,3.7,6.0,100,0.00,,,0.01,Rainwise IP-100,2013-09-03 12:14:00,
2013-09-03 08:15:00,70.1,70.0,29.67,West,270,3.3,6.0,100,0.00,,,0.01,Rainwise IP-100,2013-09-03 12:15:00,
2013-09-03 08:16:00,70.1,70.0,29.66,WSW,247,4.7,6.0,100,0.00,,,0.01,Rainwise IP-100,2013-09-03 12:16:00,
2013-09-03 08:20:00,70.2,70.0,29.67,WNW,292,2.8,5.0,100,0.00,,,0.01,Rainwise IP-100,2013-09-03 12:20:00,
2013-09-03 08:21:00,70.2,70.0,29.67,West,270,3.5,5.0,100,0.00,,,0.01,Rainwise IP-100,2013-09-03 12:21:00,
2013-09-03 08:22:00,70.2,70.0,29.67,West,270,3.3,5.0,100,0.00,,,0.01,Rainwise IP-100,2013-09-03 12:22:00,
2013-09-03 08:25:00,70.2,70.0,29.66,WSW,247,7.9,8.0,100,0.00,,,0.01,Rainwise IP-100,2013-09-03 12:25:00,
2013-09-03 08:26:00,70.2,70.0,29.67,WSW,247,5.8,9.0,100,0.00,,,0.01,Rainwise IP-100,2013-09-03 12:26:00,
2013-09-03 08:27:00,70.2,70.0,29.67,SW,225,6.5,9.0,100,0.00,,,0.01,Rainwise IP-100,2013-09-03 12:27:00,
2013-09-03 08:28:00,70.2,70.0,29.66,WSW,247,6.1,9.0,100,0.00,,,0.01,Rainwise IP-100,2013-09-03 12:28:00,
2013-09-03 08:30:00,70.2,70.0,29.67,West,270,4.0,9.0,100,0.00,,,0.01,Rainwise IP-100,2013-09-03 12:30:00,
2013-09-03 08:31:00,70.2,70.0,29.67,West,270,3.7,8.0,100,0.00,,,0.01,Rainwise IP-100,2013-09-03 12:31:00,
2013-09-03 08:32:00,70.2,70.0,29.67,WSW,247,2.8,7.0,100,0.00,,,0.01,Rainwise IP-100,2013-09-03 12:32:00,
2013-09-03 08:33:00,70.2,70.0,29.66,West,270,4.2,7.0,100,0.00,,,0.01,Rainwise IP-100,2013-09-03 12:33:00,
2013-09-03 08:36:00,70.2,70.0,29.67,WSW,247,7.7,8.0,100,0.00,,,0.01,Rainwise IP-100,2013-09-03 12:36:00,
2013-09-03 08:37:00,70.2,70.0,29.67,WSW,247,7.9,8.0,100,0.00,,,0.01,Rainwise IP-100,2013-09-03 12:37:00,
2013-09-03 08:38:00,70.2,70.0,29.67,West,270,8.2,9.0,100,0.00,,,0.01,Rainwise IP-100,2013-09-03 12:38:00,
2013-09-03 08:41:00,70.1,70.0,29.67,West,270,5.6,9.0,100,0.00,,,0.01,Rainwise IP-100,2013-09-03 12:41:00,
2013-09-03 08:42:00,70.1,70.0,29.67,WSW,247,5.8,8.0,100,0.00,,,0.01,Rainwise IP-100,2013-09-03 12:42:00,
2013-09-03 08:43:00,70.1,70.0,29.67,WSW,247,4.7,8.0,100,0.00,,,0.01,Rainwise IP-100,2013-09-03 12:43:00,
2013-09-03 08:44:00,70.1,70.0,29.67,SW,225,5.8,8.0,100,0.00,,,0.01,Rainwise IP-100,2013-09-03 12:44:00,
2013-09-03 08:45:00,70.1,70.0,29.67,WSW,247,6.1,8.0,100,0.00,,,0.01,Rainwise IP-100,2013-09-03 12:45:00,
2013-09-03 08:46:00,70.1,70.0,29.67,WSW,247,8.2,9.0,100,0.00,,,0.01,Rainwise IP-100,2013-09-03 12:46:00,
2013-09-03 08:47:00,70.1,70.0,29.67,WSW,247,7.9,9.0,100,0.00,,,0.01,Rainwise IP-100,2013-09-03 12:47:00,
2013-09-03 08:48:00,70.1,70.0,29.67,WSW,247,6.5,9.0,100,0.00,,,0.01,Rainwise IP-100,2013-09-03 12:48:00,
2013-09-03 08:50:00,70.1,70.0,29.67,WSW,247,6.5,12.0,100,0.00,,,0.01,Rainwise IP-100,2013-09-03 12:50:00,
2013-09-03 08:51:00,70.1,70.0,29.67,WSW,247,8.6,12.0,100,0.00,,,0.01,Rainwise IP-100,2013-09-03 12:51:00,
2013-09-03 08:53:00,70.1,70.0,29.67,WSW,247,8.9,12.0,100,0.00,,,0.01,Rainwise IP-100,2013-09-03 12:53:00,
2013-09-03 08:56:00,70.1,70.0,29.67,WSW,247,7.7,10.0,100,0.00,,,0.01,Rainwise IP-100,2013-09-03 12:56:00,
2013-09-03 08:57:00,70.1,70.0,29.67,WSW,247,6.8,10.0,100,0.00,,,0.01,Rainwise IP-100,2013-09-03 12:57:00,
2013-09-03 08:58:00,70.1,70.0,29.67,WSW,247,5.4,9.0,100,0.00,,,0.01,Rainwise IP-100,2013-09-03 12:58:00,
2013-09-03 08:59:00,70.1,70.0,29.67,WSW,247,5.6,9.0,100,0.00,,,0.01,Rainwise IP-100,2013-09-03 12:59:00,
2013-09-03 09:02:00,70.1,70.0,29.67,WSW,247,7.5,9.0,100,0.00,,,0.01,Rainwise IP-100,2013-09-03 13:02:00,
2013-09-03 09:03:00,70.1,70.0,29.67,WSW,247,7.9,10.0,100,0.00,,,0.01,Rainwise IP-100,2013-09-03 13:03:00,
2013-09-03 09:04:00,70.1,70.0,29.67,WSW,247,7.2,10.0,100,0.00,,,0.01,Rainwise IP-100,2013-09-03 13:04:00,
2013-09-03 09:06:00,70.1,70.0,29.67,WSW,247,5.6,10.0,100,0.00,,,0.01,Rainwise IP-100,2013-09-03 13:06:00,
2013-09-03 09:07:00,70.1,70.0,29.67,WSW,247,5.1,10.0,100,0.00,,,0.01,Rainwise IP-100,2013-09-03 13:07:00,
2013-09-03 09:08:00,70.2,70.0,29.67,WSW,247,4.9,10.0,100,0.00,,,0.01,Rainwise IP-100,2013-09-03 13:08:00,
2013-09-03 09:09:00,70.2,70.0,29.67,WSW,247,6.8,10.0,100,0.00,,,0.01,Rainwise IP-100,2013-09-03 13:09:00,
2013-09-03 09:12:00,70.2,70.0,29.67,SW,225,5.8,8.0,100,0.00,,,0.01,Rainwise IP-100,2013-09-03 13:12:00,
2013-09-03 09:13:00,70.3,70.0,29.67,WSW,247,6.1,8.0,100,0.00,,,0.01,Rainwise IP-100,2013-09-03 13:13:00,
2013-09-03 09:14:00,70.4,70.0,29.67,SW,225,6.5,8.0,100,0.00,,,0.01,Rainwise IP-100,2013-09-03 13:14:00,
2013-09-03 09:15:00,70.4,70.0,29.67,WSW,247,8.6,8.6,100,0.00,,,0.01,Rainwise IP-100,2013-09-03 13:15:00,
2013-09-03 09:18:00,70.4,70.0,29.66,SW,225,7.9,10.0,100,0.00,,,0.01,Rainwise IP-100,2013-09-03 13:18:00,
2013-09-03 09:19:00,70.5,70.0,29.67,SW,225,8.4,10.0,100,0.00,,,0.01,Rainwise IP-100,2013-09-03 13:19:00,
2013-09-03 09:20:00,70.5,70.0,29.67,SW,225,10.7,10.7,100,0.00,,,0.01,Rainwise IP-100,2013-09-03 13:20:00,
2013-09-03 09:21:00,70.5,70.0,29.67,SW,225,11.0,11.0,100,0.00,,,0.01,Rainwise IP-100,2013-09-03 13:21:00,
2013-09-03 09:23:00,70.6,70.0,29.67,SW,225,8.6,11.0,100,0.00,,,0.01,Rainwise IP-100,2013-09-03 13:23:00,
2013-09-03 09:24:00,70.6,70.0,29.67,WSW,247,6.3,11.0,100,0.00,,,0.01,Rainwise IP-100,2013-09-03 13:24:00,
2013-09-03 09:25:00,70.6,70.0,29.67,WSW,247,9.6,11.0,100,0.00,,,0.01,Rainwise IP-100,2013-09-03 13:25:00,
2013-09-03 09:26:00,70.6,70.0,29.67,WSW,247,7.7,11.0,100,0.00,,,0.01,Rainwise IP-100,2013-09-03 13:26:00,
2013-09-03 09:27:00,70.6,70.0,29.67,WSW,247,7.2,11.0,100,0.00,,,0.01,Rainwise IP-100,2013-09-03 13:27:00,
2013-09-03 09:28:00,70.6,70.0,29.67,WSW,247,6.1,9.0,100,0.00,,,0.01,Rainwise IP-100,2013-09-03 13:28:00,
2013-09-03 09:29:00,70.6,70.0,29.67,WSW,247,4.9,9.0,100,0.00,,,0.01,Rainwise IP-100,2013-09-03 13:29:00,
2013-09-03 09:30:00,70.7,70.0,29.67,WSW,247,5.8,9.0,100,0.00,,,0.01,Rainwise IP-100,2013-09-03 13:30:00,
2013-09-03 09:31:00,70.7,70.0,29.67,SW,225,6.3,8.0,100,0.00,,,0.01,Rainwise IP-100,2013-09-03 13:31:00,
2013-09-03 09:32:00,70.7,70.0,29.67,WSW,247,5.8,8.0,100,0.00,,,0.01,Rainwise IP-100,2013-09-03 13:32:00,
2013-09-03 09:33:00,70.6,70.0,29.67,WSW,247,5.4,8.0,100,0.00,,,0.01,Rainwise IP-100,2013-09-03 13:33:00,
2013-09-03 09:34:00,70.6,70.0,29.67,SW,225,7.0,7.0,100,0.00,,,0.01,Rainwise IP-100,2013-09-03 13:34:00,
2013-09-03 09:36:00,70.6,70.0,29.67,SW,225,7.2,9.0,100,0.00,,,0.01,Rainwise IP-100,2013-09-03 13:36:00,
2013-09-03 09:37:00,70.7,70.0,29.67,SW,225,6.1,9.0,100,0.00,,,0.01,Rainwise IP-100,2013-09-03 13:37:00,
2013-09-03 09:38:00,70.7,70.0,29.67,WSW,247,6.8,9.0,100,0.00,,,0.01,Rainwise IP-100,2013-09-03 13:38:00,
2013-09-03 09:39:00,70.7,70.0,29.67,WSW,247,6.3,9.0,100,0.00,,,0.01,Rainwise IP-100,2013-09-03 13:39:00,
2013-09-03 09:41:00,70.7,70.0,29.67,WSW,247,5.1,8.0,100,0.00,,,0.01,Rainwise IP-100,2013-09-03 13:41:00,
2013-09-03 09:42:00,70.7,70.0,29.67,WSW,247,6.5,8.0,100,0.00,,,0.01,Rainwise IP-100,2013-09-03 13:42:00,
2013-09-03 09:44:00,70.8,70.0,29.67,WSW,247,8.9,8.9,100,0.00,,,0.01,Rainwise IP-100,2013-09-03 13:44:00,
2013-09-03 09:47:00,70.8,70.0,29.67,WSW,247,5.6,9.0,100,0.00,,,0.01,Rainwise IP-100,2013-09-03 13:47:00,
2013-09-03 09:49:00,71.0,71.0,29.67,SW,225,8.2,9.0,100,0.00,,,0.01,Rainwise IP-100,2013-09-03 13:49:00,
2013-09-03 09:50:00,71.0,71.0,29.67,WSW,247,7.2,8.0,100,0.00,,,0.01,Rainwise IP-100,2013-09-03 13:50:00,
2013-09-03 09:52:00,71.0,71.0,29.68,WSW,247,4.2,8.0,100,0.00,,,0.01,Rainwise IP-100,2013-09-03 13:52:00,
2013-09-03 09:54:00,71.1,71.0,29.67,WSW,247,6.3,8.0,100,0.00,,,0.01,Rainwise IP-100,2013-09-03 13:54:00,
2013-09-03 09:55:00,71.1,71.0,29.67,WSW,247,5.6,7.0,100,0.00,,,0.01,Rainwise IP-100,2013-09-03 13:55:00,
2013-09-03 09:56:00,71.1,71.0,29.67,WSW,247,6.8,7.0,100,0.00,,,0.01,Rainwise IP-100,2013-09-03 13:56:00,
2013-09-03 09:58:00,71.1,71.0,29.68,WSW,247,7.5,7.5,100,0.00,,,0.01,Rainwise IP-100,2013-09-03 13:58:00,
2013-09-03 09:59:00,71.2,71.0,29.68,WSW,247,6.5,7.0,100,0.00,,,0.01,Rainwise IP-100,2013-09-03 13:59:00,
2013-09-03 10:00:00,71.2,71.0,29.68,SW,225,8.4,8.4,100,0.00,,,0.01,Rainwise IP-100,2013-09-03 14:00:00,
2013-09-03 10:01:00,71.2,71.0,29.67,WSW,247,5.4,8.0,100,0.00,,,0.01,Rainwise IP-100,2013-09-03 14:01:00,
2013-09-03 10:03:00,71.3,71.0,29.67,SW,225,7.0,8.0,100,0.00,,,0.01,Rainwise IP-100,2013-09-03 14:03:00,
2013-09-03 10:04:00,71.3,71.0,29.68,WSW,247,9.3,10.0,100,0.00,,,0.01,Rainwise IP-100,2013-09-03 14:04:00,
2013-09-03 10:05:00,71.3,71.0,29.68,SW,225,8.6,10.0,100,0.00,,,0.01,Rainwise IP-100,2013-09-03 14:05:00,
2013-09-03 10:08:00,71.3,71.0,29.68,WSW,247,7.9,11.0,100,0.00,,,0.01,Rainwise IP-100,2013-09-03 14:08:00,
2013-09-03 10:09:00,71.4,71.0,29.68,SW,225,9.1,11.0,100,0.00,,,0.01,Rainwise IP-100,2013-09-03 14:09:00,
2013-09-03 10:10:00,71.4,71.0,29.68,SW,225,7.5,11.0,100,0.00,,,0.01,Rainwise IP-100,2013-09-03 14:10:00,
2013-09-03 10:13:00,71.4,71.0,29.68,WSW,247,5.8,9.0,100,0.00,,,0.01,Rainwise IP-100,2013-09-03 14:13:00,
2013-09-03 10:14:00,71.4,71.0,29.68,WSW,247,5.6,9.0,100,0.00,,,0.01,Rainwise IP-100,2013-09-03 14:14:00,
2013-09-03 10:15:00,71.4,71.0,29.68,SW,225,5.4,8.0,100,0.00,,,0.01,Rainwise IP-100,2013-09-03 14:15:00,
2013-09-03 10:17:00,71.4,71.0,29.68,WSW,247,6.1,8.0,100,0.00,,,0.01,Rainwise IP-100,2013-09-03 14:17:00,
2013-09-03 10:18:00,71.5,71.0,29.68,WSW,247,6.3,8.0,100,0.00,,,0.01,Rainwise IP-100,2013-09-03 14:18:00,
2013-09-03 10:19:00,71.5,71.0,29.68,SW,225,4.9,8.0,100,0.00,,,0.01,Rainwise IP-100,2013-09-03 14:19:00,
2013-09-03 10:20:00,71.5,71.0,29.68,SW,225,6.3,8.0,100,0.00,,,0.01,Rainwise IP-100,2013-09-03 14:20:00,
2013-09-03 10:22:00,71.5,71.0,29.68,SW,225,7.5,7.5,100,0.00,,,0.01,Rainwise IP-100,2013-09-03 14:22:00,
2013-09-03 10:24:00,71.5,71.0,29.67,SW,225,5.4,8.0,100,0.00,,,0.01,Rainwise IP-100,2013-09-03 14:24:00,
2013-09-03 10:25:00,71.5,71.0,29.67,SW,225,5.6,8.0,100,0.00,,,0.01,Rainwise IP-100,2013-09-03 14:25:00,
2013-09-03 10:26:00,71.5,71.0,29.67,SSW,202,4.7,8.0,100,0.00,,,0.01,Rainwise IP-100,2013-09-03 14:26:00,
2013-09-03 10:28:00,71.5,71.0,29.67,SSW,202,4.7,6.0,100,0.00,,,0.01,Rainwise IP-100,2013-09-03 14:28:00,
2013-09-03 10:29:00,71.5,71.0,29.67,SSW,202,4.2,6.0,100,0.00,,,0.01,Rainwise IP-100,2013-09-03 14:29:00,
2013-09-03 10:30:00,71.5,71.0,29.67,SSW,202,4.9,5.0,100,0.00,,,0.01,Rainwise IP-100,2013-09-03 14:30:00,
2013-09-03 10:31:00,71.5,71.0,29.68,SSW,202,5.1,7.0,100,0.00,,,0.01,Rainwise IP-100,2013-09-03 14:31:00,
2013-09-03 10:34:00,71.5,71.0,29.67,SSW,202,4.7,7.0,100,0.00,,,0.01,Rainwise IP-100,2013-09-03 14:34:00,
2013-09-03 10:35:00,71.5,71.0,29.67,SSW,202,5.4,7.0,100,0.00,,,0.01,Rainwise IP-100,2013-09-03 14:35:00,
2013-09-03 10:36:00,71.5,71.0,29.66,SSW,202,4.9,7.0,100,0.00,,,0.01,Rainwise IP-100,2013-09-03 14:36:00,
2013-09-03 10:37:00,71.5,71.0,29.66,SSW,202,5.1,7.0,100,0.00,,,0.01,Rainwise IP-100,2013-09-03 14:37:00,
2013-09-03 10:40:00,71.4,71.0,29.67,SSW,202,5.6,7.0,100,0.00,,,0.01,Rainwise IP-100,2013-09-03 14:40:00,
2013-09-03 10:41:00,71.4,71.0,29.66,SSW,202,5.4,7.0,100,0.00,,,0.01,Rainwise IP-100,2013-09-03 14:41:00,
2013-09-03 10:43:00,71.4,71.0,29.67,SSW,202,5.4,7.0,100,0.00,,,0.01,Rainwise IP-100,2013-09-03 14:43:00,
2013-09-03 10:45:00,71.3,71.0,29.67,SSW,202,5.8,7.0,100,0.00,,,0.01,Rainwise IP-100,2013-09-03 14:45:00,
2013-09-03 10:46:00,71.3,71.0,29.67,SSW,202,5.4,7.0,100,0.00,,,0.01,Rainwise IP-100,2013-09-03 14:46:00,
2013-09-03 10:47:00,71.3,71.0,29.67,SSW,202,3.7,7.0,100,0.00,,,0.01,Rainwise IP-100,2013-09-03 14:47:00,
2013-09-03 10:49:00,71.2,71.0,29.67,South,180,3.5,6.0,100,0.00,,,0.01,Rainwise IP-100,2013-09-03 14:49:00,
2013-09-03 10:50:00,71.2,71.0,29.67,SSW,202,3.7,6.0,100,0.00,,,0.01,Rainwise IP-100,2013-09-03 14:50:00,
2013-09-03 10:51:00,71.2,71.0,29.66,South,180,4.7,5.0,100,0.00,,,0.01,Rainwise IP-100,2013-09-03 14:51:00,
2013-09-03 10:52:00,71.2,71.0,29.66,South,180,4.0,4.0,100,0.00,,,0.01,Rainwise IP-100,2013-09-03 14:52:00,
2013-09-03 10:54:00,71.1,71.0,29.67,South,180,3.5,5.0,100,0.00,,,0.01,Rainwise IP-100,2013-09-03 14:54:00,
2013-09-03 10:55:00,71.2,71.0,29.66,South,180,3.0,5.0,100,0.00,,,0.01,Rainwise IP-100,2013-09-03 14:55:00,
2013-09-03 10:56:00,71.2,71.0,29.66,South,180,3.5,5.0,100,0.00,,,0.01,Rainwise IP-100,2013-09-03 14:56:00,
2013-09-03 10:57:00,71.2,71.0,29.66,SSE,157,3.3,5.0,100,0.00,,,0.01,Rainwise IP-100,2013-09-03 14:57:00,
2013-09-03 10:58:00,71.2,71.0,29.66,SSE,157,5.1,5.1,100,0.00,,,0.01,Rainwise IP-100,2013-09-03 14:58:00,
2013-09-03 10:59:00,71.2,71.0,29.66,SSE,157,4.9,5.0,100,0.00,,,0.01,Rainwise IP-100,2013-09-03 14:59:00,
2013-09-03 11:01:00,71.2,71.0,29.65,SE,135,3.3,5.0,100,0.00,,,0.01,Rainwise IP-100,2013-09-03 15:01:00,
2013-09-03 11:02:00,71.3,71.0,29.65,SSE,157,5.1,5.1,100,0.00,,,0.01,Rainwise IP-100,2013-09-03 15:02:00,
2013-09-03 11:03:00,71.4,71.0,29.65,SSE,157,4.4,5.0,100,0.00,,,0.01,Rainwise IP-100,2013-09-03 15:03:00,
2013-09-03 11:04:00,71.4,71.0,29.65,SSE,157,3.5,5.0,100,0.00,,,0.01,Rainwise IP-100,2013-09-03 15:04:00,
2013-09-03 11:06:00,71.4,71.0,29.65,SSE,157,5.1,5.1,100,0.00,,,0.01,Rainwise IP-100,2013-09-03 15:06:00,
2013-09-03 11:08:00,71.5,71.0,29.65,SSE,157,4.0,5.0,100,0.00,,,0.01,Rainwise IP-100,2013-09-03 15:08:00,
2013-09-03 11:09:00,71.5,71.0,29.65,SSE,157,1.4,5.0,100,0.00,,,0.01,Rainwise IP-100,2013-09-03 15:09:00,
2013-09-03 11:11:00,71.6,71.0,29.65,South,180,4.9,5.0,100,0.00,,,0.01,Rainwise IP-100,2013-09-03 15:11:00,
2013-09-03 11:12:00,71.6,71.0,29.66,South,180,5.4,7.0,100,0.00,,,0.01,Rainwise IP-100,2013-09-03 15:12:00,
2013-09-03 11:13:00,71.6,71.0,29.66,South,180,6.5,7.0,100,0.00,,,0.01,Rainwise IP-100,2013-09-03 15:13:00,
2013-09-03 11:14:00,71.6,71.0,29.65,SSE,157,6.5,7.0,100,0.00,,,0.01,Rainwise IP-100,2013-09-03 15:14:00,
2013-09-03 11:15:00,71.6,71.0,29.65,SSE,157,7.5,8.0,100,0.00,,,0.01,Rainwise IP-100,2013-09-03 15:15:00,
2013-09-03 11:17:00,71.6,71.0,29.65,SE,135,5.6,8.0,100,0.00,,,0.01,Rainwise IP-100,2013-09-03 15:17:00,
2013-09-03 11:18:00,71.5,71.0,29.65,ESE,112,7.0,8.0,100,0.00,,,0.01,Rainwise IP-100,2013-09-03 15:18:00,
2013-09-03 11:19:00,71.5,71.0,29.64,ESE,112,4.9,8.0,100,0.00,,,0.01,Rainwise IP-100,2013-09-03 15:19:00,
2013-09-03 11:20:00,71.5,71.0,29.64,SE,135,8.2,8.2,100,0.00,,,0.01,Rainwise IP-100,2013-09-03 15:20:00,
2013-09-03 11:21:00,71.5,71.0,29.64,SE,135,8.9,9.0,100,0.00,,,0.01,Rainwise IP-100,2013-09-03 15:21:00,
2013-09-03 11:22:00,71.4,71.0,29.64,SE,135,8.2,9.0,100,0.00,,,0.01,Rainwise IP-100,2013-09-03 15:22:00,
2013-09-03 11:23:00,71.4,71.0,29.63,SE,135,9.3,13.0,100,0.00,,,0.01,Rainwise IP-100,2013-09-03 15:23:00,
2013-09-03 11:24:00,71.4,71.0,29.63,ESE,112,9.1,13.0,100,0.00,,,0.01,Rainwise IP-100,2013-09-03 15:24:00,
2013-09-03 11:26:00,71.4,71.0,29.64,SE,135,11.2,13.0,100,0.00,,,0.01,Rainwise IP-100,2013-09-03 15:26:00,
2013-09-03 11:27:00,71.4,71.0,29.64,South,180,5.1,13.0,100,0.00,,,0.01,Rainwise IP-100,2013-09-03 15:27:00,
2013-09-03 11:29:00,71.4,71.0,29.64,SSE,157,7.5,13.0,100,0.00,,,0.01,Rainwise IP-100,2013-09-03 15:29:00,
2013-09-03 11:30:00,71.4,71.0,29.65,SSE,157,4.7,11.0,100,0.00,,,0.01,Rainwise IP-100,2013-09-03 15:30:00,
2013-09-03 11:31:00,71.4,71.0,29.65,SSE,157,5.6,11.0,100,0.00,,,0.01,Rainwise IP-100,2013-09-03 15:31:00,
2013-09-03 11:32:00,71.4,71.0,29.65,SSE,157,7.5,10.0,100,0.00,,,0.01,Rainwise IP-100,2013-09-03 15:32:00,
2013-09-03 11:34:00,71.2,71.0,29.65,SSE,157,6.5,9.0,100,0.00,,,0.01,Rainwise IP-100,2013-09-03 15:34:00,
2013-09-03 11:35:00,71.1,71.0,29.65,SSE,157,2.3,9.0,100,0.00,,,0.01,Rainwise IP-100,2013-09-03 15:35:00,
2013-09-03 11:36:00,71.1,71.0,29.65,SSE,157,7.9,9.0,100,0.00,,,0.01,Rainwise IP-100,2013-09-03 15:36:00,
2013-09-03 11:37:00,71.0,71.0,29.65,SSE,157,5.8,9.0,100,0.00,,,0.01,Rainwise IP-100,2013-09-03 15:37:00,
2013-09-03 11:38:00,71.0,71.0,29.65,SSW,202,3.0,9.0,100,0.00,,,0.01,Rainwise IP-100,2013-09-03 15:38:00,
2013-09-03 11:40:00,71.0,71.0,29.65,SSW,202,4.4,8.0,100,0.00,,,0.01,Rainwise IP-100,2013-09-03 15:40:00,
2013-09-03 11:41:00,71.1,71.0,29.65,SSE,157,6.8,8.0,100,0.00,,,0.01,Rainwise IP-100,2013-09-03 15:41:00,
2013-09-03 11:42:00,71.1,71.0,29.65,South,180,6.3,6.3,100,0.00,,,0.01,Rainwise IP-100,2013-09-03 15:42:00,
2013-09-03 11:43:00,71.1,71.0,29.65,South,180,6.8,6.8,100,0.00,,,0.01,Rainwise IP-100,2013-09-03 15:43:00,
2013-09-03 11:44:00,71.2,71.0,29.66,SSE,157,4.7,7.0,100,0.00,,,0.01,Rainwise IP-100,2013-09-03 15:44:00,
2013-09-03 11:46:00,71.2,71.0,29.65,SSW,202,4.4,7.0,100,0.00,,,0.01,Rainwise IP-100,2013-09-03 15:46:00,
2013-09-03 11:47:00,71.3,71.0,29.65,South,180,5.1,7.0,100,0.00,,,0.01,Rainwise IP-100,2013-09-03 15:47:00,
2013-09-03 11:48:00,71.3,71.0,29.65,South,180,6.8,7.0,100,0.00,,,0.01,Rainwise IP-100,2013-09-03 15:48:00,
2013-09-03 11:51:00,71.4,71.0,29.65,South,180,4.7,7.0,100,0.00,,,0.01,Rainwise IP-100,2013-09-03 15:51:00,
2013-09-03 11:52:00,71.4,71.0,29.65,South,180,5.4,7.0,100,0.00,,,0.01,Rainwise IP-100,2013-09-03 15:52:00,
2013-09-03 11:53:00,71.4,71.0,29.65,South,180,6.3,7.0,100,0.00,,,0.01,Rainwise IP-100,2013-09-03 15:53:00,
2013-09-03 11:54:00,71.5,71.0,29.65,SSW,202,4.9,7.0,100,0.00,,,0.01,Rainwise IP-100,2013-09-03 15:54:00,
2013-09-03 11:56:00,71.6,71.0,29.65,South,180,6.3,7.0,100,0.00,,,0.01,Rainwise IP-100,2013-09-03 15:56:00,
2013-09-03 11:57:00,71.7,71.0,29.65,SSW,202,5.8,7.0,100,0.00,,,0.01,Rainwise IP-100,2013-09-03 15:57:00,
2013-09-03 11:58:00,71.7,71.0,29.65,SSW,202,6.3,7.0,100,0.00,,,0.01,Rainwise IP-100,2013-09-03 15:58:00,
2013-09-03 11:59:00,71.7,71.0,29.65,South,180,5.6,7.0,100,0.00,,,0.01,Rainwise IP-100,2013-09-03 15:59:00,
2013-09-03 12:02:00,71.9,72.0,29.65,SSW,202,5.1,9.0,100,0.00,,,0.01,Rainwise IP-100,2013-09-03 16:02:00,
2013-09-03 12:03:00,71.9,72.0,29.65,SSW,202,6.5,9.0,100,0.00,,,0.01,Rainwise IP-100,2013-09-03 16:03:00,
2013-09-03 12:04:00,71.9,72.0,29.66,SSW,202,7.0,9.0,100,0.00,,,0.01,Rainwise IP-100,2013-09-03 16:04:00,
2013-09-03 12:05:00,71.9,72.0,29.66,SW,225,6.5,9.0,100,0.00,,,0.01,Rainwise IP-100,2013-09-03 16:05:00,
2013-09-03 12:07:00,72.0,72.0,29.66,SSW,202,7.7,8.0,100,0.00,,,0.01,Rainwise IP-100,2013-09-03 16:07:00,
2013-09-03 12:08:00,72.0,72.0,29.66,SW,225,5.6,8.0,100,0.00,,,0.01,Rainwise IP-100,2013-09-03 16:08:00,
2013-09-03 12:09:00,72.0,72.0,29.66,SSW,202,6.5,8.0,100,0.00,,,0.01,Rainwise IP-100,2013-09-03 16:09:00,
2013-09-03 12:11:00,72.0,72.0,29.65,SSW,202,5.1,7.0,100,0.00,,,0.01,Rainwise IP-100,2013-09-03 16:11:00,
2013-09-03 12:13:00,72.0,72.0,29.65,SW,225,6.8,7.0,100,0.00,,,0.01,Rainwise IP-100,2013-09-03 16:13:00,
2013-09-03 12:14:00,72.0,72.0,29.65,SW,225,8.9,8.9,100,0.00,,,0.01,Rainwise IP-100,2013-09-03 16:14:00,
2013-09-03 12:15:00,72.0,72.0,29.66,SW,225,8.6,10.0,100,0.00,,,0.01,Rainwise IP-100,2013-09-03 16:15:00,
2013-09-03 12:17:00,72.0,72.0,29.67,SW,225,7.2,10.0,100,0.00,,,0.01,Rainwise IP-100,2013-09-03 16:17:00,
2013-09-03 12:18:00,72.0,72.0,29.67,SW,225,9.1,10.0,100,0.00,,,0.01,Rainwise IP-100,2013-09-03 16:18:00,
2013-09-03 12:19:00,72.0,72.0,29.67,WSW,247,9.1,10.0,100,0.00,,,0.01,Rainwise IP-100,2013-09-03 16:19:00,
2013-09-03 12:21:00,72.0,72.0,29.67,WSW,247,10.5,10.5,100,0.00,,,0.01,Rainwise IP-100,2013-09-03 16:21:00,
2013-09-03 12:22:00,72.0,72.0,29.67,WSW,247,9.8,11.0,100,0.00,,,0.01,Rainwise IP-100,2013-09-03 16:22:00,
2013-09-03 12:23:00,72.0,72.0,29.67,WSW,247,8.6,11.0,100,0.00,,,0.01,Rainwise IP-100,2013-09-03 16:23:00,
2013-09-03 12:24:00,72.0,72.0,29.67,WSW,247,7.9,11.0,100,0.00,,,0.01,Rainwise IP-100,2013-09-03 16:24:00,
2013-09-03 12:27:00,72.0,72.0,29.66,WSW,247,9.6,11.0,100,0.00,,,0.01,Rainwise IP-100,2013-09-03 16:27:00,
2013-09-03 12:28:00,72.0,72.0,29.66,WSW,247,10.0,11.0,100,0.00,,,0.01,Rainwise IP-100,2013-09-03 16:28:00,
2013-09-03 12:29:00,72.0,72.0,29.66,SW,225,9.1,11.0,100,0.00,,,0.01,Rainwise IP-100,2013-09-03 16:29:00,
2013-09-03 12:33:00,72.1,72.0,29.67,SW,225,6.5,12.0,100,0.00,,,0.01,Rainwise IP-100,2013-09-03 16:33:00,
2013-09-03 12:34:00,72.1,72.0,29.67,SW,225,9.1,12.0,100,0.00,,,0.01,Rainwise IP-100,2013-09-03 16:34:00,
2013-09-03 12:38:00,72.0,72.0,29.67,WSW,247,10.0,14.0,100,0.06,,,0.02,Rainwise IP-100,2013-09-03 16:38:00,
2013-09-03 12:39:00,72.0,72.0,29.67,WSW,247,11.4,14.0,100,0.06,,,0.02,Rainwise IP-100,2013-09-03 16:39:00,
2013-09-03 12:40:00,71.9,69.0,29.66,WSW,247,10.0,14.0,90,0.06,,,0.02,Rainwise IP-100,2013-09-03 16:40:00,
2013-09-03 12:44:00,71.8,68.0,29.66,WSW,247,10.3,13.0,90,0.06,,,0.02,Rainwise IP-100,2013-09-03 16:44:00,
2013-09-03 12:45:00,71.8,68.0,29.67,SW,225,10.0,13.0,90,0.06,,,0.02,Rainwise IP-100,2013-09-03 16:45:00,
2013-09-03 12:46:00,71.8,68.0,29.66,SW,225,9.8,13.0,90,0.06,,,0.02,Rainwise IP-100,2013-09-03 16:46:00,
2013-09-03 12:49:00,72.1,99.9,29.66,SW,225,9.3,14.0,255,0.00,,,0.03,Rainwise IP-100,2013-09-03 16:49:00,
2013-09-03 12:50:00,72.1,99.9,29.66,SW,225,9.3,14.0,255,0.00,,,0.03,Rainwise IP-100,2013-09-03 16:50:00,
2013-09-03 12:51:00,72.2,69.0,29.66,SW,225,13.5,14.0,90,0.06,,,0.26,Rainwise IP-100,2013-09-03 16:51:00,
2013-09-03 12:54:00,72.1,99.9,29.66,SW,225,12.1,15.0,255,1.44,,,0.26,Rainwise IP-100,2013-09-03 16:54:00,
2013-09-03 12:55:00,72.2,69.0,29.66,SW,225,12.1,15.0,90,1.44,,,0.26,Rainwise IP-100,2013-09-03 16:55:00,
2013-09-03 12:56:00,72.3,72.0,29.66,SW,225,13.8,15.0,100,1.44,,,0.27,Rainwise IP-100,2013-09-03 16:56:00,
2013-09-03 12:59:00,71.9,72.0,29.65,WSW,247,10.3,18.0,100,1.68,,,0.30,Rainwise IP-100,2013-09-03 16:59:00,
2013-09-03 13:00:00,71.7,71.0,29.66,WSW,247,11.0,18.0,100,1.62,,,0.31,Rainwise IP-100,2013-09-03 17:00:00,
2013-09-03 13:01:00,71.6,71.0,29.65,WSW,247,8.9,18.0,100,1.62,,,0.31,Rainwise IP-100,2013-09-03 17:01:00,
2013-09-03 13:05:00,70.9,71.0,29.65,WSW,247,10.7,12.0,100,0.30,,,0.31,Rainwise IP-100,2013-09-03 17:05:00,
2013-09-03 13:06:00,70.9,71.0,29.65,West,270,7.9,13.0,100,0.24,,,0.31,Rainwise IP-100,2013-09-03 17:06:00,
2013-09-03 13:08:00,70.8,70.0,29.65,West,270,13.1,14.0,100,0.06,,,0.31,Rainwise IP-100,2013-09-03 17:08:00,
2013-09-03 13:10:00,70.9,71.0,29.65,West,270,14.0,16.0,100,0.06,,,0.31,Rainwise IP-100,2013-09-03 17:10:00,
2013-09-03 13:11:00,70.9,71.0,29.65,West,270,7.7,16.0,100,0.00,,,0.31,Rainwise IP-100,2013-09-03 17:11:00,
2013-09-03 13:12:00,70.9,71.0,29.65,West,270,10.5,16.0,100,0.00,,,0.31,Rainwise IP-100,2013-09-03 17:12:00,
2013-09-03 13:14:00,71.1,71.0,29.65,WNW,292,7.9,15.0,100,0.12,,,0.33,Rainwise IP-100,2013-09-03 17:14:00,
2013-09-03 13:16:00,71.2,71.0,29.65,WNW,292,9.8,15.0,100,0.60,,,0.41,Rainwise IP-100,2013-09-03 17:16:00,
2013-09-03 13:17:00,71.3,71.0,29.65,WNW,292,4.4,15.0,100,0.60,,,0.41,Rainwise IP-100,2013-09-03 17:17:00,
2013-09-03 13:18:00,71.4,71.0,29.65,WNW,292,6.3,15.0,100,0.60,,,0.41,Rainwise IP-100,2013-09-03 17:18:00,
2013-09-03 13:19:00,71.5,71.0,29.65,NW,315,4.9,15.0,100,0.60,,,0.41,Rainwise IP-100,2013-09-03 17:19:00,
2013-09-03 13:21:00,71.5,71.0,29.64,WNW,292,2.8,12.0,100,0.72,,,0.43,Rainwise IP-100,2013-09-03 17:21:00,
2013-09-03 13:22:00,71.6,71.0,29.65,WSW,247,1.2,12.0,100,0.72,,,0.44,Rainwise IP-100,2013-09-03 17:22:00,
2013-09-03 13:24:00,71.7,71.0,29.65,West,270,8.2,9.0,100,0.72,,,0.45,Rainwise IP-100,2013-09-03 17:24:00,
2013-09-03 13:25:00,71.7,71.0,29.65,WSW,247,11.7,11.7,100,0.66,,,0.45,Rainwise IP-100,2013-09-03 17:25:00,
2013-09-03 13:26:00,71.7,71.0,29.66,WSW,247,11.0,12.0,100,0.24,,,0.45,Rainwise IP-100,2013-09-03 17:26:00,
2013-09-03 13:27:00,71.7,71.0,29.66,WSW,247,13.5,13.5,100,0.24,,,0.45,Rainwise IP-100,2013-09-03 17:27:00,
2013-09-03 13:29:00,71.5,71.0,29.65,WSW,247,10.7,24.0,100,0.24,,,0.45,Rainwise IP-100,2013-09-03 17:29:00,
2013-09-03 13:30:00,71.5,71.0,29.65,WSW,247,12.4,24.0,100,0.24,,,0.45,Rainwise IP-100,2013-09-03 17:30:00,
2013-09-03 13:31:00,71.3,71.0,29.65,WNW,292,14.5,24.0,100,0.30,,,0.48,Rainwise IP-100,2013-09-03 17:31:00,
2013-09-03 13:32:00,71.0,71.0,29.64,WSW,247,7.2,24.0,100,0.30,,,0.48,Rainwise IP-100,2013-09-03 17:32:00,
2013-09-03 13:33:00,71.0,71.0,29.64,WNW,292,4.4,17.0,100,0.24,,,0.48,Rainwise IP-100,2013-09-03 17:33:00,
2013-09-03 13:35:00,70.5,70.0,29.64,NW,315,12.1,16.0,100,0.18,,,0.48,Rainwise IP-100,2013-09-03 17:35:00,
2013-09-03 13:36:00,70.2,70.0,29.64,NNW,337,13.8,16.0,100,0.18,,,0.48,Rainwise IP-100,2013-09-03 17:36:00,
2013-09-03 13:38:00,69.6,69.0,29.64,WNW,292,8.4,16.0,100,0.18,,,0.48,Rainwise IP-100,2013-09-03 17:38:00,
2013-09-03 13:39:00,69.4,69.0,29.64,NW,315,1.4,16.0,100,0.18,,,0.48,Rainwise IP-100,2013-09-03 17:39:00,
2013-09-03 13:40:00,69.2,69.0,29.63,WNW,292,6.3,16.0,100,0.18,,,0.48,Rainwise IP-100,2013-09-03 17:40:00,
2013-09-03 13:41:00,69.2,69.0,29.63,WNW,292,5.8,16.0,100,0.18,,,0.48,Rainwise IP-100,2013-09-03 17:41:00,
2013-09-03 13:44:00,68.7,68.0,29.62,NW,315,4.2,11.0,100,0.00,,,0.48,Rainwise IP-100,2013-09-03 17:44:00,
2013-09-03 13:45:00,68.5,68.0,29.62,NW,315,1.2,9.0,100,0.00,,,0.48,Rainwise IP-100,2013-09-03 17:45:00,
2013-09-03 13:46:00,68.4,68.0,29.62,NW,315,0.0,9.0,100,0.00,,,0.48,Rainwise IP-100,2013-09-03 17:46:00,
2013-09-03 13:49:00,68.1,68.0,29.62,WSW,247,2.3,4.0,100,0.00,,,0.48,Rainwise IP-100,2013-09-03 17:49:00,
2013-09-03 13:50:00,68.1,68.0,29.62,WSW,247,1.9,3.0,100,0.00,,,0.48,Rainwise IP-100,2013-09-03 17:50:00,
2013-09-03 13:51:00,68.1,68.0,29.62,WSW,247,1.9,3.0,100,0.00,,,0.48,Rainwise IP-100,2013-09-03 17:51:00,
2013-09-03 13:54:00,68.2,68.0,29.62,SSW,202,4.4,4.4,100,0.00,,,0.48,Rainwise IP-100,2013-09-03 17:54:00,
2013-09-03 13:55:00,68.2,68.0,29.62,SSW,202,4.4,4.4,100,0.00,,,0.48,Rainwise IP-100,2013-09-03 17:55:00,
2013-09-03 13:56:00,68.3,68.0,29.62,SSW,202,4.7,4.7,100,0.00,,,0.48,Rainwise IP-100,2013-09-03 17:56:00,
2013-09-03 13:57:00,68.3,68.0,29.62,SSW,202,4.7,4.7,100,0.00,,,0.48,Rainwise IP-100,2013-09-03 17:57:00,
2013-09-03 14:00:00,68.6,68.0,29.63,SW,225,4.2,5.0,100,0.00,,,0.48,Rainwise IP-100,2013-09-03 18:00:00,
2013-09-03 14:01:00,68.8,68.0,29.63,SW,225,3.5,5.0,100,0.00,,,0.48,Rainwise IP-100,2013-09-03 18:01:00,
2013-09-03 14:02:00,68.9,69.0,29.63,SW,225,3.7,5.0,100,0.00,,,0.48,Rainwise IP-100,2013-09-03 18:02:00,
2013-09-03 14:05:00,69.4,69.0,29.64,SSW,202,4.0,4.0,100,0.00,,,0.48,Rainwise IP-100,2013-09-03 18:05:00,
2013-09-03 14:06:00,69.5,69.0,29.64,SSW,202,3.0,4.0,100,0.00,,,0.48,Rainwise IP-100,2013-09-03 18:06:00,
2013-09-03 14:07:00,69.5,69.0,29.64,SSW,202,3.0,4.0,100,0.00,,,0.48,Rainwise IP-100,2013-09-03 18:07:00,
2013-09-03 14:08:00,69.6,69.0,29.63,SSW,202,2.6,4.0,99,0.00,,,0.48,Rainwise IP-100,2013-09-03 18:08:00,
2013-09-03 14:11:00,69.8,69.0,29.63,SW,225,3.5,4.0,99,0.00,,,0.48,Rainwise IP-100,2013-09-03 18:11:00,
2013-09-03 14:12:00,69.8,69.0,29.63,SW,225,4.0,4.0,99,0.00,,,0.48,Rainwise IP-100,2013-09-03 18:12:00,
2013-09-03 14:13:00,69.9,69.0,29.63,SW,225,3.0,4.0,98,0.00,,,0.48,Rainwise IP-100,2013-09-03 18:13:00,
2013-09-03 14:14:00,69.9,69.0,29.63,SW,225,1.9,4.0,98,0.00,,,0.48,Rainwise IP-100,2013-09-03 18:14:00,
2013-09-03 14:16:00,69.9,69.0,29.62,SSW,202,4.4,4.4,98,0.00,,,0.48,Rainwise IP-100,2013-09-03 18:16:00,
2013-09-03 14:17:00,69.9,69.0,29.62,SSW,202,4.0,4.0,97,0.00,,,0.48,Rainwise IP-100,2013-09-03 18:17:00,
2013-09-03 14:18:00,70.0,69.0,29.63,SW,225,3.7,4.0,97,0.00,,,0.48,Rainwise IP-100,2013-09-03 18:18:00,
2013-09-03 14:21:00,70.7,69.0,29.63,West,270,4.7,9.0,96,0.00,,,0.48,Rainwise IP-100,2013-09-03 18:21:00,
2013-09-03 14:23:00,71.2,70.0,29.62,NE,45,3.7,9.0,96,0.00,,,0.48,Rainwise IP-100,2013-09-03 18:23:00,
2013-09-03 14:24:00,71.4,70.0,29.63,NNE,22,3.3,9.0,96,0.00,,,0.48,Rainwise IP-100,2013-09-03 18:24:00,
2013-09-03 14:26:00,71.5,70.0,29.63,ENE,67,2.6,7.0,95,0.00,,,0.48,Rainwise IP-100,2013-09-03 18:26:00,
2013-09-03 14:27:00,71.6,70.0,29.63,ESE,112,1.4,7.0,96,0.00,,,0.48,Rainwise IP-100,2013-09-03 18:27:00,
2013-09-03 14:28:00,71.6,70.0,29.62,East,90,2.1,6.0,96,0.00,,,0.48,Rainwise IP-100,2013-09-03 18:28:00,
2013-09-03 14:29:00,71.4,70.0,29.63,ESE,112,1.2,5.0,96,0.00,,,0.48,Rainwise IP-100,2013-09-03 18:29:00,
2013-09-03 14:30:00,71.4,70.0,29.63,ESE,112,0.0,5.0,96,0.00,,,0.48,Rainwise IP-100,2013-09-03 18:30:00,
2013-09-03 14:31:00,71.1,69.0,29.63,WSW,247,2.6,5.0,96,0.00,,,0.48,Rainwise IP-100,2013-09-03 18:31:00,
2013-09-03 14:32:00,70.9,69.0,29.63,WSW,247,4.4,4.4,96,0.00,,,0.48,Rainwise IP-100,2013-09-03 18:32:00,
2013-09-03 14:34:00,70.9,69.0,29.63,West,270,4.9,5.0,96,0.00,,,0.48,Rainwise IP-100,2013-09-03 18:34:00,
2013-09-03 14:35:00,70.9,69.0,29.63,WSW,247,8.2,8.2,96,0.06,,,0.49,Rainwise IP-100,2013-09-03 18:35:00,
2013-09-03 14:36:00,71.0,69.0,29.65,WSW,247,10.0,10.0,96,0.06,,,0.49,Rainwise IP-100,2013-09-03 18:36:00,
2013-09-03 14:38:00,71.0,69.0,29.66,West,270,13.8,13.8,96,0.06,,,0.49,Rainwise IP-100,2013-09-03 18:38:00,
2013-09-03 14:39:00,71.0,69.0,29.65,West,270,20.1,22.0,96,0.24,,,0.52,Rainwise IP-100,2013-09-03 18:39:00,
2013-09-03 14:40:00,70.8,69.0,29.66,WSW,247,9.1,22.0,96,0.24,,,0.52,Rainwise IP-100,2013-09-03 18:40:00,
2013-09-03 14:41:00,70.8,69.0,29.66,WNW,292,7.7,22.0,96,0.24,,,0.52,Rainwise IP-100,2013-09-03 18:41:00,
2013-09-03 14:42:00,70.7,69.0,29.65,West,270,4.7,22.0,96,0.24,,,0.52,Rainwise IP-100,2013-09-03 18:42:00,
2013-09-03 14:43:00,70.5,69.0,29.65,WSW,247,6.3,22.0,96,0.24,,,0.52,Rainwise IP-100,2013-09-03 18:43:00,
2013-09-03 14:44:00,70.3,69.0,29.65,WSW,247,6.5,21.0,96,0.24,,,0.52,Rainwise IP-100,2013-09-03 18:44:00,
2013-09-03 14:46:00,69.8,68.0,29.65,WSW,247,8.4,11.0,96,0.18,,,0.52,Rainwise IP-100,2013-09-03 18:46:00,
2013-09-03 14:47:00,69.8,68.0,29.65,WSW,247,9.8,11.0,96,0.18,,,0.52,Rainwise IP-100,2013-09-03 18:47:00,
2013-09-03 14:49:00,69.5,68.0,29.65,WSW,247,15.2,15.2,96,0.00,,,0.52,Rainwise IP-100,2013-09-03 18:49:00,
2013-09-03 14:50:00,69.4,68.0,29.65,WSW,247,8.9,15.0,96,0.00,,,0.52,Rainwise IP-100,2013-09-03 18:50:00,
2013-09-03 14:51:00,69.4,68.0,29.65,WNW,292,7.2,15.0,96,0.00,,,0.52,Rainwise IP-100,2013-09-03 18:51:00,
2013-09-03 14:52:00,69.4,68.0,29.65,West,270,6.1,15.0,96,0.00,,,0.52,Rainwise IP-100,2013-09-03 18:52:00,
2013-09-03 14:53:00,69.4,68.0,29.65,WNW,292,7.2,15.0,96,0.00,,,0.52,Rainwise IP-100,2013-09-03 18:53:00,
2013-09-03 14:56:00,69.3,68.0,29.65,NW,315,6.3,14.0,96,0.00,,,0.52,Rainwise IP-100,2013-09-03 18:56:00,
2013-09-03 14:57:00,69.3,68.0,29.65,WSW,247,2.6,14.0,96,0.00,,,0.52,Rainwise IP-100,2013-09-03 18:57:00,
2013-09-03 14:58:00,69.4,68.0,29.65,West,270,6.8,7.0,96,0.00,,,0.52,Rainwise IP-100,2013-09-03 18:58:00,
2013-09-03 15:01:00,69.3,68.0,29.64,NNW,337,3.3,10.0,96,0.06,,,0.53,Rainwise IP-100,2013-09-03 19:01:00,
2013-09-03 15:02:00,69.3,68.0,29.64,NNW,337,8.4,14.0,96,0.06,,,0.53,Rainwise IP-100,2013-09-03 19:02:00,
2013-09-03 15:03:00,69.3,68.0,29.64,NNW,337,9.1,14.0,96,0.06,,,0.53,Rainwise IP-100,2013-09-03 19:03:00,
2013-09-03 15:05:00,69.3,68.0,29.64,NW,315,6.8,14.0,96,0.30,,,0.57,Rainwise IP-100,2013-09-03 19:05:00,
2013-09-03 15:06:00,69.3,68.0,29.64,NNW,337,9.6,14.0,96,0.42,,,0.59,Rainwise IP-100,2013-09-03 19:06:00,
2013-09-03 15:07:00,69.2,68.0,29.63,North,360,5.1,13.0,96,0.78,,,0.67,Rainwise IP-100,2013-09-03 19:07:00,
2013-09-03 15:08:00,69.2,68.0,29.63,North,360,6.3,13.0,96,0.90,,,0.69,Rainwise IP-100,2013-09-03 19:08:00,
2013-09-03 15:10:00,69.1,68.0,29.63,North,360,7.2,13.0,97,1.08,,,0.77,Rainwise IP-100,2013-09-03 19:10:00,
2013-09-03 15:11:00,69.1,68.0,29.64,North,360,5.6,9.0,97,1.44,,,0.80,Rainwise IP-100,2013-09-03 19:11:00,
2013-09-03 15:12:00,69.0,68.0,29.63,North,360,4.4,9.0,97,1.62,,,0.80,Rainwise IP-100,2013-09-03 19:12:00,
2013-09-03 15:14:00,69.0,68.0,29.64,NNW,337,0.0,9.0,98,1.74,,,0.83,Rainwise IP-100,2013-09-03 19:14:00,
2013-09-03 15:15:00,69.0,68.0,29.65,NW,315,2.3,6.0,98,1.56,,,0.84,Rainwise IP-100,2013-09-03 19:15:00,
2013-09-03 15:17:00,69.0,68.0,29.65,NW,315,2.6,5.0,98,1.26,,,0.86,Rainwise IP-100,2013-09-03 19:17:00,
2013-09-03 15:18:00,69.0,68.0,29.65,NNW,337,7.9,7.9,98,1.26,,,0.88,Rainwise IP-100,2013-09-03 19:18:00,
2013-09-03 15:19:00,69.0,68.0,29.65,NNW,337,6.1,10.0,98,1.26,,,0.93,Rainwise IP-100,2013-09-03 19:19:00,
2013-09-03 15:20:00,69.0,68.0,29.65,NW,315,7.2,10.0,98,1.44,,,1.01,Rainwise IP-100,2013-09-03 19:20:00,
2013-09-03 15:21:00,69.0,68.0,29.65,NW,315,6.1,10.0,98,1.62,,,1.04,Rainwise IP-100,2013-09-03 19:21:00,
2013-09-03 15:22:00,69.0,68.0,29.65,NW,315,5.8,10.0,99,1.86,,,1.11,Rainwise IP-100,2013-09-03 19:22:00,
2013-09-03 15:23:00,69.0,68.0,29.65,WNW,292,6.3,10.0,99,2.16,,,1.19,Rainwise IP-100,2013-09-03 19:23:00,
2013-09-03 15:24:00,69.0,68.0,29.65,NNW,337,6.5,10.0,99,3.06,,,1.41,Rainwise IP-100,2013-09-03 19:24:00,
2013-09-03 15:26:00,69.0,68.0,29.63,North,360,6.8,11.0,99,4.50,,,1.60,Rainwise IP-100,2013-09-03 19:26:00,
2013-09-03 15:27:00,69.0,68.0,29.64,North,360,10.5,11.0,99,4.80,,,1.68,Rainwise IP-100,2013-09-03 19:27:00,
2013-09-03 15:28:00,68.9,68.0,29.63,North,360,12.4,12.4,99,5.22,,,1.80,Rainwise IP-100,2013-09-03 19:28:00,
2013-09-03 15:29:00,68.9,68.0,29.63,NNW,337,11.7,12.0,99,5.34,,,1.81,Rainwise IP-100,2013-09-03 19:29:00,
2013-09-03 15:30:00,68.9,68.0,29.63,NNE,22,9.1,12.0,99,4.98,,,1.84,Rainwise IP-100,2013-09-03 19:30:00,
2013-09-03 15:32:00,68.9,68.0,29.62,North,360,13.5,13.5,99,4.80,,,1.85,Rainwise IP-100,2013-09-03 19:32:00,
2013-09-03 15:33:00,68.9,68.0,29.63,North,360,9.1,17.0,99,4.02,,,1.85,Rainwise IP-100,2013-09-03 19:33:00,
2013-09-03 15:34:00,68.9,68.0,29.63,North,360,10.5,17.0,99,3.18,,,1.87,Rainwise IP-100,2013-09-03 19:34:00,
2013-09-03 15:35:00,69.0,69.0,29.63,NNW,337,6.5,17.0,100,2.52,,,1.87,Rainwise IP-100,2013-09-03 19:35:00,
2013-09-03 15:37:00,69.0,69.0,29.63,NNW,337,6.8,17.0,100,1.44,,,1.90,Rainwise IP-100,2013-09-03 19:37:00,
2013-09-03 15:38:00,69.1,69.0,29.64,NNW,337,5.4,14.0,100,0.90,,,1.90,Rainwise IP-100,2013-09-03 19:38:00,
2013-09-03 15:40:00,69.2,69.0,29.63,North,360,5.1,8.0,100,0.42,,,1.91,Rainwise IP-100,2013-09-03 19:40:00,
2013-09-03 15:42:00,69.3,69.0,29.63,NNE,22,6.5,8.0,100,0.48,,,1.92,Rainwise IP-100,2013-09-03 19:42:00,
2013-09-03 15:43:00,69.3,69.0,29.63,North,360,3.0,7.0,100,0.66,,,1.96,Rainwise IP-100,2013-09-03 19:43:00,
2013-09-03 15:44:00,69.4,69.0,29.62,NNE,22,4.2,7.0,100,0.66,,,2.00,Rainwise IP-100,2013-09-03 19:44:00,
2013-09-03 15:47:00,69.6,69.0,29.62,SSE,157,3.3,7.0,100,0.96,,,2.03,Rainwise IP-100,2013-09-03 19:47:00,
2013-09-03 15:49:00,69.7,69.0,29.63,South,180,4.2,6.0,100,0.78,,,2.03,Rainwise IP-100,2013-09-03 19:49:00,
2013-09-03 15:50:00,69.8,69.0,29.63,South,180,3.0,6.0,100,0.78,,,2.03,Rainwise IP-100,2013-09-03 19:50:00,
2013-09-03 15:52:00,69.8,69.0,29.63,South,180,4.7,6.0,100,0.66,,,2.03,Rainwise IP-100,2013-09-03 19:52:00,
2013-09-03 15:53:00,69.8,69.0,29.63,South,180,5.4,6.0,100,0.42,,,2.03,Rainwise IP-100,2013-09-03 19:53:00,
2013-09-03 15:54:00,69.8,69.0,29.64,SSE,157,2.8,5.0,100,0.12,,,2.03,Rainwise IP-100,2013-09-03 19:54:00,
2013-09-03 15:56:00,69.8,69.0,29.64,SSE,157,1.9,6.0,100,0.00,,,2.03,Rainwise IP-100,2013-09-03 19:56:00,
2013-09-03 15:58:00,69.8,69.0,29.64,South,180,0.0,6.0,100,0.00,,,2.03,Rainwise IP-100,2013-09-03 19:58:00,
2013-09-03 15:59:00,69.8,69.0,29.64,SE,135,2.8,6.0,100,0.00,,,2.03,Rainwise IP-100,2013-09-03 19:59:00,
2013-09-03 16:02:00,69.9,70.0,29.63,ESE,112,3.3,6.0,100,0.00,,,2.03,Rainwise IP-100,2013-09-03 20:02:00,
2013-09-03 16:03:00,69.9,70.0,29.63,ESE,112,6.3,7.0,100,0.00,,,2.03,Rainwise IP-100,2013-09-03 20:03:00,
2013-09-03 16:04:00,69.9,70.0,29.63,SE,135,5.1,9.0,100,0.00,,,2.03,Rainwise IP-100,2013-09-03 20:04:00,
2013-09-03 16:06:00,69.9,70.0,29.63,SSE,157,4.0,9.0,100,0.00,,,2.03,Rainwise IP-100,2013-09-03 20:06:00,
2013-09-03 16:08:00,69.9,70.0,29.63,SSE,157,6.1,9.0,100,0.00,,,2.03,Rainwise IP-100,2013-09-03 20:08:00,
2013-09-03 16:09:00,69.8,69.0,29.63,SE,135,4.7,7.0,100,0.00,,,2.03,Rainwise IP-100,2013-09-03 20:09:00,
2013-09-03 16:10:00,69.8,69.0,29.63,SE,135,6.3,8.0,100,0.00,,,2.03,Rainwise IP-100,2013-09-03 20:10:00,
2013-09-03 16:11:00,69.8,69.0,29.63,SE,135,5.6,8.0,100,0.00,,,2.03,Rainwise IP-100,2013-09-03 20:11:00,
2013-09-03 16:13:00,69.8,69.0,29.63,SE,135,8.4,9.0,100,0.00,,,2.03,Rainwise IP-100,2013-09-03 20:13:00,
2013-09-03 16:14:00,69.8,69.0,29.63,SE,135,8.9,9.0,100,0.00,,,2.03,Rainwise IP-100,2013-09-03 20:14:00,
2013-09-03 16:15:00,69.8,69.0,29.63,ESE,112,4.4,9.0,100,0.06,,,2.04,Rainwise IP-100,2013-09-03 20:15:00,
2013-09-03 16:17:00,69.7,69.0,29.62,SE,135,6.1,9.0,100,0.06,,,2.04,Rainwise IP-100,2013-09-03 20:17:00,
2013-09-03 16:19:00,69.7,69.0,29.63,SE,135,5.6,9.0,100,0.06,,,2.04,Rainwise IP-100,2013-09-03 20:19:00,
2013-09-03 16:20:00,69.7,69.0,29.62,SE,135,8.6,10.0,100,0.06,,,2.04,Rainwise IP-100,2013-09-03 20:20:00,
2013-09-03 16:24:00,69.8,69.0,29.62,SSE,157,10.7,10.7,100,0.06,,,2.04,Rainwise IP-100,2013-09-03 20:24:00,
2013-09-03 16:25:00,69.8,69.0,29.62,SE,135,7.7,10.0,100,0.00,,,2.04,Rainwise IP-100,2013-09-03 20:25:00,
2013-09-03 16:26:00,69.8,69.0,29.62,SSE,157,3.3,10.0,100,0.00,,,2.04,Rainwise IP-100,2013-09-03 20:26:00,
2013-09-03 16:29:00,69.9,70.0,29.62,SSE,157,6.1,10.0,100,0.00,,,2.04,Rainwise IP-100,2013-09-03 20:29:00,
2013-09-03 16:30:00,69.9,70.0,29.62,SE,135,4.2,8.0,100,0.00,,,2.04,Rainwise IP-100,2013-09-03 20:30:00,
2013-09-03 16:31:00,69.9,70.0,29.62,SE,135,6.3,8.0,100,0.00,,,2.04,Rainwise IP-100,2013-09-03 20:31:00,
2013-09-03 16:34:00,69.9,70.0,29.62,ESE,112,5.1,8.0,100,0.00,,,2.04,Rainwise IP-100,2013-09-03 20:34:00,
2013-09-03 16:35:00,69.9,70.0,29.62,SE,135,6.8,8.0,100,0.00,,,2.04,Rainwise IP-100,2013-09-03 20:35:00,
2013-09-03 16:36:00,70.0,70.0,29.62,SSE,157,7.2,8.0,100,0.00,,,2.04,Rainwise IP-100,2013-09-03 20:36:00,
2013-09-03 16:37:00,70.0,70.0,29.62,SE,135,5.4,8.0,100,0.00,,,2.04,Rainwise IP-100,2013-09-03 20:37:00,
2013-09-03 16:40:00,70.0,70.0,29.62,SE,135,7.0,8.0,100,0.00,,,2.04,Rainwise IP-100,2013-09-03 20:40:00,
2013-09-03 16:41:00,70.0,70.0,29.62,SE,135,5.6,8.0,100,0.00,,,2.04,Rainwise IP-100,2013-09-03 20:41:00,
2013-09-03 16:42:00,70.0,70.0,29.63,SE,135,3.7,8.0,100,0.00,,,2.04,Rainwise IP-100,2013-09-03 20:42:00,
2013-09-03 16:43:00,70.0,70.0,29.63,SE,135,2.8,8.0,100,0.00,,,2.04,Rainwise IP-100,2013-09-03 20:43:00,
2013-09-03 16:45:00,70.1,70.0,29.63,NW,315,5.8,7.0,100,0.00,,,2.04,Rainwise IP-100,2013-09-03 20:45:00,
2013-09-03 16:46:00,70.1,70.0,29.63,WNW,292,7.9,8.0,100,0.00,,,2.04,Rainwise IP-100,2013-09-03 20:46:00,
2013-09-03 16:47:00,70.1,70.0,29.64,WNW,292,7.0,9.0,100,0.00,,,2.04,Rainwise IP-100,2013-09-03 20:47:00,
2013-09-03 16:48:00,70.2,70.0,29.64,WNW,292,3.7,9.0,100,0.00,,,2.04,Rainwise IP-100,2013-09-03 20:48:00,
2013-09-03 16:51:00,70.3,70.0,29.62,SE,135,2.3,9.0,100,0.00,,,2.04,Rainwise IP-100,2013-09-03 20:51:00,
2013-09-03 16:52:00,70.3,70.0,29.63,SE,135,0.0,7.0,100,0.00,,,2.04,Rainwise IP-100,2013-09-03 20:52:00,
2013-09-03 16:53:00,70.4,70.0,29.62,NNW,337,3.5,7.0,100,0.00,,,2.04,Rainwise IP-100,2013-09-03 20:53:00,
2013-09-03 16:54:00,70.4,70.0,29.63,NW,315,5.4,5.4,100,0.00,,,2.04,Rainwise IP-100,2013-09-03 20:54:00,
2013-09-03 16:56:00,70.5,70.0,29.63,NW,315,1.4,5.0,100,0.00,,,2.04,Rainwise IP-100,2013-09-03 20:56:00,
2013-09-03 16:57:00,70.5,70.0,29.63,NW,315,0.0,5.0,100,0.00,,,2.04,Rainwise IP-100,2013-09-03 20:57:00,
2013-09-03 16:58:00,70.5,70.0,29.63,NNW,337,3.3,5.0,100,0.00,,,2.04,Rainwise IP-100,2013-09-03 20:58:00,
2013-09-03 17:00:00,70.5,70.0,29.63,NNW,337,4.9,5.0,100,0.00,,,2.04,Rainwise IP-100,2013-09-03 21:00:00,
2013-09-03 17:02:00,70.5,70.0,29.63,NNW,337,4.2,7.0,100,0.00,,,2.04,Rainwise IP-100,2013-09-03 21:02:00,
2013-09-03 17:03:00,70.4,70.0,29.64,NW,315,4.4,7.0,100,0.00,,,2.04,Rainwise IP-100,2013-09-03 21:03:00,
2013-09-03 17:04:00,70.4,70.0,29.64,NW,315,1.9,7.0,100,0.00,,,2.04,Rainwise IP-100,2013-09-03 21:04:00,
2013-09-03 17:06:00,70.5,70.0,29.64,NW,315,0.0,7.0,100,0.00,,,2.04,Rainwise IP-100,2013-09-03 21:06:00,
2013-09-03 17:07:00,70.5,70.0,29.63,NNW,337,4.2,6.0,100,0.00,,,2.04,Rainwise IP-100,2013-09-03 21:07:00,
2013-09-03 17:08:00,70.5,70.0,29.64,NW,315,4.7,7.0,100,0.00,,,2.04,Rainwise IP-100,2013-09-03 21:08:00,
2013-09-03 17:10:00,70.5,70.0,29.64,NNW,337,3.7,7.0,100,0.00,,,2.04,Rainwise IP-100,2013-09-03 21:10:00,
2013-09-03 17:11:00,70.5,70.0,29.64,North,360,2.8,7.0,100,0.00,,,2.04,Rainwise IP-100,2013-09-03 21:11:00,
2013-09-03 17:12:00,70.5,70.0,29.64,North,360,2.3,7.0,100,0.00,,,2.04,Rainwise IP-100,2013-09-03 21:12:00,
2013-09-03 17:13:00,70.5,70.0,29.64,North,360,1.9,6.0,100,0.00,,,2.04,Rainwise IP-100,2013-09-03 21:13:00,
2013-09-03 17:14:00,70.5,70.0,29.63,North,360,2.1,6.0,100,0.00,,,2.04,Rainwise IP-100,2013-09-03 21:14:00,
2013-09-03 17:15:00,70.4,70.0,29.63,North,360,2.3,4.0,100,0.00,,,2.04,Rainwise IP-100,2013-09-03 21:15:00,
2013-09-03 17:16:00,70.4,70.0,29.64,NW,315,2.8,3.0,100,0.00,,,2.04,Rainwise IP-100,2013-09-03 21:16:00,
2013-09-03 17:17:00,70.4,70.0,29.64,NW,315,2.3,4.0,100,0.00,,,2.04,Rainwise IP-100,2013-09-03 21:17:00,
2013-09-03 17:18:00,70.3,70.0,29.64,WNW,292,3.3,4.0,100,0.00,,,2.04,Rainwise IP-100,2013-09-03 21:18:00,
2013-09-03 17:19:00,70.3,70.0,29.64,WNW,292,3.5,4.0,100,0.00,,,2.04,Rainwise IP-100,2013-09-03 21:19:00,
2013-09-03 17:22:00,70.3,70.0,29.64,West,270,1.9,3.0,100,0.00,,,2.04,Rainwise IP-100,2013-09-03 21:22:00,
2013-09-03 17:24:00,70.3,70.0,29.63,West,270,2.3,4.0,100,0.00,,,2.04,Rainwise IP-100,2013-09-03 21:24:00,
2013-09-03 17:25:00,70.3,70.0,29.63,WSW,247,2.1,4.0,100,0.00,,,2.04,Rainwise IP-100,2013-09-03 21:25:00,
2013-09-03 17:27:00,70.3,70.0,29.63,WSW,247,2.3,4.0,100,0.00,,,2.04,Rainwise IP-100,2013-09-03 21:27:00,
2013-09-03 17:28:00,70.3,70.0,29.63,West,270,3.5,4.0,100,0.00,,,2.04,Rainwise IP-100,2013-09-03 21:28:00,
2013-09-03 17:29:00,70.3,70.0,29.64,WSW,247,3.0,4.0,100,0.00,,,2.04,Rainwise IP-100,2013-09-03 21:29:00,
2013-09-03 17:30:00,70.3,70.0,29.63,WSW,247,2.6,4.0,100,0.00,,,2.04,Rainwise IP-100,2013-09-03 21:30:00,
2013-09-03 17:33:00,70.3,70.0,29.63,WSW,247,2.8,4.0,100,0.00,,,2.04,Rainwise IP-100,2013-09-03 21:33:00,
2013-09-03 17:34:00,70.3,70.0,29.63,WSW,247,2.8,3.0,100,0.00,,,2.04,Rainwise IP-100,2013-09-03 21:34:00,
2013-09-03 17:35:00,70.3,70.0,29.63,WSW,247,2.8,3.0,100,0.00,,,2.04,Rainwise IP-100,2013-09-03 21:35:00,
2013-09-03 17:38:00,70.4,70.0,29.64,SSW,202,3.0,4.0,100,0.00,,,2.04,Rainwise IP-100,2013-09-03 21:38:00,
2013-09-03 17:39:00,70.4,70.0,29.63,SSW,202,3.3,4.0,100,0.00,,,2.04,Rainwise IP-100,2013-09-03 21:39:00,
2013-09-03 17:40:00,70.4,70.0,29.63,SSW,202,4.0,4.0,100,0.00,,,2.04,Rainwise IP-100,2013-09-03 21:40:00,
2013-09-03 17:43:00,70.5,70.0,29.63,SSW,202,6.3,7.0,100,0.00,,,2.04,Rainwise IP-100,2013-09-03 21:43:00,
2013-09-03 17:44:00,70.5,70.0,29.63,SSW,202,4.7,7.0,100,0.00,,,2.04,Rainwise IP-100,2013-09-03 21:44:00,
2013-09-03 17:45:00,70.5,70.0,29.63,SSW,202,4.7,7.0,100,0.00,,,2.04,Rainwise IP-100,2013-09-03 21:45:00,
2013-09-03 17:46:00,70.5,70.0,29.63,SSW,202,5.1,7.0,100,0.00,,,2.04,Rainwise IP-100,2013-09-03 21:46:00,
2013-09-03 17:49:00,70.6,70.0,29.63,SSW,202,5.4,6.0,100,0.00,,,2.04,Rainwise IP-100,2013-09-03 21:49:00,
2013-09-03 17:50:00,70.6,70.0,29.63,SW,225,5.8,6.0,100,0.00,,,2.04,Rainwise IP-100,2013-09-03 21:50:00,
2013-09-03 17:52:00,70.6,70.0,29.63,SW,225,4.4,6.0,100,0.00,,,2.04,Rainwise IP-100,2013-09-03 21:52:00,
2013-09-03 17:53:00,70.6,70.0,29.63,SSW,202,4.7,6.0,100,0.00,,,2.04,Rainwise IP-100,2013-09-03 21:53:00,
2013-09-03 17:54:00,70.6,70.0,29.63,SSW,202,4.9,6.0,100,0.00,,,2.04,Rainwise IP-100,2013-09-03 21:54:00,
2013-09-03 17:55:00,70.6,70.0,29.63,SSW,202,4.4,6.0,100,0.00,,,2.04,Rainwise IP-100,2013-09-03 21:55:00,
2013-09-03 17:57:00,70.5,70.0,29.63,SW,225,4.2,6.0,100,0.00,,,2.04,Rainwise IP-100,2013-09-03 21:57:00,
2013-09-03 17:58:00,70.5,70.0,29.63,SW,225,4.7,5.0,100,0.00,,,2.04,Rainwise IP-100,2013-09-03 21:58:00,
2013-09-03 17:59:00,70.5,70.0,29.63,SW,225,4.0,5.0,100,0.00,,,2.04,Rainwise IP-100,2013-09-03 21:59:00,
2013-09-03 18:00:00,70.5,70.0,29.63,SW,225,3.0,5.0,100,0.00,,,2.04,Rainwise IP-100,2013-09-03 22:00:00,
2013-09-03 18:01:00,70.5,70.0,29.64,SW,225,4.0,5.0,100,0.00,,,2.04,Rainwise IP-100,2013-09-03 22:01:00,
2013-09-03 18:02:00,70.5,70.0,29.63,SSW,202,4.4,5.0,100,0.00,,,2.04,Rainwise IP-100,2013-09-03 22:02:00,
2013-09-03 18:04:00,70.4,70.0,29.63,SW,225,3.0,4.0,100,0.00,,,2.04,Rainwise IP-100,2013-09-03 22:04:00,
2013-09-03 18:05:00,70.4,70.0,29.63,SW,225,2.8,4.0,100,0.00,,,2.04,Rainwise IP-100,2013-09-03 22:05:00,
2013-09-03 18:06:00,70.4,70.0,29.63,SW,225,3.5,4.0,100,0.00,,,2.04,Rainwise IP-100,2013-09-03 22:06:00,
2013-09-03 18:07:00,70.4,70.0,29.64,SW,225,3.7,4.0,100,0.00,,,2.04,Rainwise IP-100,2013-09-03 22:07:00,
2013-09-03 18:09:00,70.4,70.0,29.63,SW,225,4.7,4.7,100,0.00,,,2.04,Rainwise IP-100,2013-09-03 22:09:00,
2013-09-03 18:10:00,70.3,70.0,29.64,SW,225,3.7,4.0,100,0.00,,,2.04,Rainwise IP-100,2013-09-03 22:10:00,
2013-09-03 18:11:00,70.3,70.0,29.64,SW,225,4.2,4.2,100,0.00,,,2.04,Rainwise IP-100,2013-09-03 22:11:00,
2013-09-03 18:12:00,70.3,70.0,29.64,SW,225,3.5,4.0,100,0.00,,,2.04,Rainwise IP-100,2013-09-03 22:12:00,
2013-09-03 18:15:00,70.4,70.0,29.63,SW,225,4.0,5.0,100,0.00,,,2.04,Rainwise IP-100,2013-09-03 22:15:00,
2013-09-03 18:16:00,70.3,70.0,29.64,SW,225,4.2,5.0,100,0.00,,,2.04,Rainwise IP-100,2013-09-03 22:16:00,
2013-09-03 18:17:00,70.3,70.0,29.64,SW,225,4.4,5.0,100,0.00,,,2.04,Rainwise IP-100,2013-09-03 22:17:00,
2013-09-03 18:18:00,70.3,70.0,29.64,SW,225,4.7,5.0,100,0.00,,,2.04,Rainwise IP-100,2013-09-03 22:18:00,
2013-09-03 18:20:00,70.3,70.0,29.64,SW,225,4.0,5.0,100,0.00,,,2.04,Rainwise IP-100,2013-09-03 22:20:00,
2013-09-03 18:21:00,70.3,70.0,29.64,SW,225,4.2,5.0,100,0.00,,,2.04,Rainwise IP-100,2013-09-03 22:21:00,
2013-09-03 18:22:00,70.3,70.0,29.64,SW,225,4.2,5.0,100,0.00,,,2.04,Rainwise IP-100,2013-09-03 22:22:00,
2013-09-03 18:24:00,70.3,70.0,29.64,SW,225,4.2,5.0,100,0.00,,,2.04,Rainwise IP-100,2013-09-03 22:24:00,
2013-09-03 18:25:00,70.2,70.0,29.64,SW,225,4.9,5.0,100,0.00,,,2.04,Rainwise IP-100,2013-09-03 22:25:00,
2013-09-03 18:27:00,70.2,70.0,29.65,SW,225,4.0,5.0,100,0.00,,,2.04,Rainwise IP-100,2013-09-03 22:27:00,
2013-09-03 18:29:00,70.2,70.0,29.65,SSW,202,4.7,5.0,100,0.00,,,2.04,Rainwise IP-100,2013-09-03 22:29:00,
2013-09-03 18:30:00,70.3,70.0,29.64,SSW,202,4.4,5.0,100,0.00,,,2.04,Rainwise IP-100,2013-09-03 22:30:00,
2013-09-03 18:32:00,70.3,70.0,29.64,SSW,202,5.6,5.6,100,0.00,,,2.04,Rainwise IP-100,2013-09-03 22:32:00,
2013-09-03 18:33:00,70.3,70.0,29.65,SW,225,4.7,6.0,100,0.00,,,2.04,Rainwise IP-100,2013-09-03 22:33:00,
2013-09-03 18:35:00,70.3,70.0,29.64,SSW,202,4.2,6.0,100,0.00,,,2.04,Rainwise IP-100,2013-09-03 22:35:00,
2013-09-03 18:37:00,70.3,70.0,29.64,SSW,202,6.1,6.1,100,0.00,,,2.04,Rainwise IP-100,2013-09-03 22:37:00,
2013-09-03 18:38:00,70.3,70.0,29.64,SSW,202,5.8,6.0,100,0.00,,,2.04,Rainwise IP-100,2013-09-03 22:38:00,
2013-09-03 18:39:00,70.3,70.0,29.65,SSW,202,5.1,7.0,100,0.00,,,2.04,Rainwise IP-100,2013-09-03 22:39:00,
2013-09-03 18:41:00,70.2,70.0,29.64,SSW,202,5.1,7.0,100,0.00,,,2.04,Rainwise IP-100,2013-09-03 22:41:00,
2013-09-03 18:43:00,70.1,70.0,29.65,SSW,202,5.6,7.0,100,0.00,,,2.04,Rainwise IP-100,2013-09-03 22:43:00,
2013-09-03 18:45:00,70.1,70.0,29.65,SSW,202,5.8,6.0,100,0.00,,,2.04,Rainwise IP-100,2013-09-03 22:45:00,
2013-09-03 18:46:00,70.0,70.0,29.65,SSW,202,4.9,6.0,100,0.00,,,2.04,Rainwise IP-100,2013-09-03 22:46:00,
2013-09-03 18:47:00,70.0,70.0,29.65,SW,225,4.9,6.0,100,0.00,,,2.04,Rainwise IP-100,2013-09-03 22:47:00,
2013-09-03 18:48:00,70.0,70.0,29.65,SW,225,5.1,6.0,100,0.00,,,2.04,Rainwise IP-100,2013-09-03 22:48:00,
2013-09-03 18:49:00,70.0,70.0,29.65,SW,225,4.2,6.0,100,0.00,,,2.04,Rainwise IP-100,2013-09-03 22:49:00,
2013-09-03 18:50:00,70.0,70.0,29.65,SSW,202,3.3,6.0,100,0.00,,,2.04,Rainwise IP-100,2013-09-03 22:50:00,
2013-09-03 18:51:00,70.0,70.0,29.65,SW,225,4.4,5.0,100,0.00,,,2.04,Rainwise IP-100,2013-09-03 22:51:00,
2013-09-03 18:52:00,70.0,70.0,29.65,SW,225,5.4,5.4,100,0.00,,,2.04,Rainwise IP-100,2013-09-03 22:52:00,
2013-09-03 18:53:00,70.1,70.0,29.65,SW,225,4.4,6.0,100,0.00,,,2.04,Rainwise IP-100,2013-09-03 22:53:00,
2013-09-03 18:55:00,70.1,70.0,29.65,WSW,247,4.4,6.0,100,0.00,,,2.04,Rainwise IP-100,2013-09-03 22:55:00,
2013-09-03 18:56:00,70.1,70.0,29.65,WSW,247,6.8,6.8,100,0.00,,,2.04,Rainwise IP-100,2013-09-03 22:56:00,
2013-09-03 18:57:00,70.1,70.0,29.65,WSW,247,8.9,8.9,100,0.00,,,2.04,Rainwise IP-100,2013-09-03 22:57:00,
2013-09-03 18:58:00,70.2,70.0,29.65,WSW,247,8.6,10.0,100,0.00,,,2.04,Rainwise IP-100,2013-09-03 22:58:00,
2013-09-03 18:59:00,70.2,70.0,29.65,WSW,247,7.5,10.0,100,0.00,,,2.04,Rainwise IP-100,2013-09-03 22:59:00,
2013-09-03 19:01:00,70.2,70.0,29.65,WSW,247,7.0,10.0,100,0.00,,,2.04,Rainwise IP-100,2013-09-03 23:01:00,
2013-09-03 19:02:00,70.3,70.0,29.66,WSW,247,6.1,10.0,100,0.00,,,2.04,Rainwise IP-100,2013-09-03 23:02:00,
2013-09-03 19:03:00,70.4,70.0,29.66,WSW,247,7.0,10.0,99,0.00,,,2.04,Rainwise IP-100,2013-09-03 23:03:00,
2013-09-03 19:04:00,70.4,70.0,29.66,WSW,247,6.1,9.0,99,0.00,,,2.04,Rainwise IP-100,2013-09-03 23:04:00,
2013-09-03 19:07:00,70.5,70.0,29.66,WSW,247,7.9,9.0,99,0.00,,,2.04,Rainwise IP-100,2013-09-03 23:07:00,
2013-09-03 19:08:00,70.5,70.0,29.66,WSW,247,5.6,9.0,99,0.00,,,2.04,Rainwise IP-100,2013-09-03 23:08:00,
2013-09-03 19:09:00,70.5,70.0,29.66,West,270,4.0,9.0,99,0.00,,,2.04,Rainwise IP-100,2013-09-03 23:09:00,
2013-09-03 19:12:00,70.5,70.0,29.66,West,270,6.1,7.0,99,0.00,,,2.04,Rainwise IP-100,2013-09-03 23:12:00,
2013-09-03 19:13:00,70.5,70.0,29.66,WSW,247,6.8,7.0,99,0.00,,,2.04,Rainwise IP-100,2013-09-03 23:13:00,
2013-09-03 19:15:00,70.5,70.0,29.66,West,270,6.8,11.0,99,0.00,,,2.04,Rainwise IP-100,2013-09-03 23:15:00,
2013-09-03 19:18:00,70.5,70.0,29.66,West,270,7.5,11.0,99,0.00,,,2.04,Rainwise IP-100,2013-09-03 23:18:00,
2013-09-03 19:19:00,70.5,70.0,29.66,West,270,6.5,11.0,99,0.00,,,2.04,Rainwise IP-100,2013-09-03 23:19:00,
2013-09-03 19:20:00,70.4,70.0,29.66,West,270,7.2,11.0,99,0.00,,,2.04,Rainwise IP-100,2013-09-03 23:20:00,
2013-09-03 19:21:00,70.4,70.0,29.67,West,270,5.1,11.0,99,0.00,,,2.04,Rainwise IP-100,2013-09-03 23:21:00,
2013-09-03 19:23:00,70.3,69.0,29.67,West,270,2.8,11.0,99,0.00,,,2.04,Rainwise IP-100,2013-09-03 23:23:00,
2013-09-03 19:24:00,70.3,69.0,29.67,WNW,292,5.1,9.0,99,0.00,,,2.04,Rainwise IP-100,2013-09-03 23:24:00,
2013-09-03 19:25:00,70.3,69.0,29.67,West,270,8.2,8.2,99,0.00,,,2.04,Rainwise IP-100,2013-09-03 23:25:00,
2013-09-03 19:26:00,70.2,69.0,29.67,WNW,292,3.7,9.0,99,0.00,,,2.04,Rainwise IP-100,2013-09-03 23:26:00,
2013-09-03 19:27:00,70.2,69.0,29.67,WNW,292,6.3,9.0,99,0.00,,,2.04,Rainwise IP-100,2013-09-03 23:27:00,
2013-09-03 19:28:00,70.2,69.0,29.67,WNW,292,4.0,9.0,99,0.00,,,2.04,Rainwise IP-100,2013-09-03 23:28:00,
2013-09-03 19:29:00,70.2,69.0,29.67,WNW,292,4.4,9.0,99,0.00,,,2.04,Rainwise IP-100,2013-09-03 23:29:00,
2013-09-03 19:30:00,70.2,69.0,29.67,West,270,7.0,9.0,99,0.00,,,2.04,Rainwise IP-100,2013-09-03 23:30:00,
2013-09-03 19:31:00,70.1,69.0,29.66,NW,315,4.2,7.0,99,0.00,,,2.04,Rainwise IP-100,2013-09-03 23:31:00,
2013-09-03 19:33:00,70.2,69.0,29.67,WNW,292,3.7,7.0,99,0.00,,,2.04,Rainwise IP-100,2013-09-03 23:33:00,
2013-09-03 19:34:00,70.2,69.0,29.67,WNW,292,3.5,7.0,99,0.00,,,2.04,Rainwise IP-100,2013-09-03 23:34:00,
2013-09-03 19:35:00,70.2,69.0,29.67,WSW,247,3.5,7.0,99,0.00,,,2.04,Rainwise IP-100,2013-09-03 23:35:00,
2013-09-03 19:38:00,70.2,70.0,29.67,West,270,2.6,6.0,100,0.00,,,2.04,Rainwise IP-100,2013-09-03 23:38:00,
2013-09-03 19:39:00,70.2,70.0,29.67,West,270,6.5,7.0,100,0.00,,,2.04,Rainwise IP-100,2013-09-03 23:39:00,
2013-09-03 19:40:00,70.2,70.0,29.67,West,270,5.8,7.0,100,0.00,,,2.04,Rainwise IP-100,2013-09-03 23:40:00,
2013-09-03 19:44:00,70.3,70.0,29.67,West,270,5.6,8.0,100,0.00,,,2.04,Rainwise IP-100,2013-09-03 23:44:00,
2013-09-03 19:45:00,70.3,70.0,29.67,WNW,292,4.0,8.0,100,0.00,,,2.04,Rainwise IP-100,2013-09-03 23:45:00,
2013-09-03 19:46:00,70.3,70.0,29.67,WNW,292,5.8,8.0,100,0.00,,,2.04,Rainwise IP-100,2013-09-03 23:46:00,
2013-09-03 19:49:00,70.3,70.0,29.67,West,270,3.5,9.0,100,0.00,,,2.04,Rainwise IP-100,2013-09-03 23:49:00,
2013-09-03 19:50:00,70.3,70.0,29.67,NW,315,8.6,9.0,100,0.00,,,2.04,Rainwise IP-100,2013-09-03 23:50:00,
2013-09-03 19:51:00,70.3,70.0,29.67,NW,315,5.8,9.0,100,0.00,,,2.04,Rainwise IP-100,2013-09-03 23:51:00,
2013-09-03 19:52:00,70.3,70.0,29.67,NW,315,3.7,9.0,100,0.00,,,2.04,Rainwise IP-100,2013-09-03 23:52:00,
2013-09-03 19:54:00,70.3,70.0,29.67,NNW,337,4.0,9.0,100,0.00,,,2.04,Rainwise IP-100,2013-09-03 23:54:00,
2013-09-03 19:55:00,70.3,70.0,29.67,NW,315,7.7,9.0,100,0.00,,,2.04,Rainwise IP-100,2013-09-03 23:55:00,
2013-09-03 19:56:00,70.3,70.0,29.67,NW,315,7.9,9.0,100,0.00,,,2.04,Rainwise IP-100,2013-09-03 23:56:00,
2013-09-03 19:57:00,70.3,70.0,29.67,NW,315,6.8,10.0,100,0.00,,,2.04,Rainwise IP-100,2013-09-03 23:57:00,
2013-09-03 19:59:00,70.2,70.0,29.67,NW,315,8.2,10.0,100,0.00,,,2.04,Rainwise IP-100,2013-09-03 23:59:00,
2013-09-03 20:00:00,70.2,69.0,29.67,WNW,292,8.9,10.0,99,0.00,,,2.04,Rainwise IP-100,2013-09-04 00:00:00,
2013-09-03 20:01:00,70.2,69.0,29.67,NNW,337,7.2,10.0,99,0.00,,,2.04,Rainwise IP-100,2013-09-04 00:01:00,
2013-09-03 20:02:00,70.2,69.0,29.67,NW,315,6.8,10.0,99,0.00,,,2.04,Rainwise IP-100,2013-09-04 00:02:00,
2013-09-03 20:03:00,70.1,69.0,29.67,NW,315,7.2,10.0,99,0.00,,,2.04,Rainwise IP-100,2013-09-04 00:03:00,
2013-09-03 20:05:00,70.0,69.0,29.67,NW,315,9.3,9.3,99,0.00,,,2.04,Rainwise IP-100,2013-09-04 00:05:00,
2013-09-03 20:06:00,70.0,69.0,29.67,NW,315,7.0,9.0,99,0.00,,,2.04,Rainwise IP-100,2013-09-04 00:06:00,
2013-09-03 20:07:00,69.9,69.0,29.67,NW,315,8.4,10.0,99,0.00,,,2.04,Rainwise IP-100,2013-09-04 00:07:00,
2013-09-03 20:10:00,69.9,69.0,29.67,NW,315,8.6,10.0,99,0.00,,,2.04,Rainwise IP-100,2013-09-04 00:10:00,
2013-09-03 20:11:00,69.8,69.0,29.67,NW,315,7.7,10.0,98,0.00,,,2.04,Rainwise IP-100,2013-09-04 00:11:00,
2013-09-03 20:12:00,69.8,69.0,29.67,NW,315,6.5,10.0,98,0.00,,,2.04,Rainwise IP-100,2013-09-04 00:12:00,
2013-09-03 20:14:00,69.8,69.0,29.67,WNW,292,4.9,10.0,98,0.00,,,2.04,Rainwise IP-100,2013-09-04 00:14:00,
2013-09-03 20:15:00,69.8,69.0,29.68,WNW,292,8.6,10.0,98,0.00,,,2.04,Rainwise IP-100,2013-09-04 00:15:00,
2013-09-03 20:16:00,69.7,69.0,29.67,NW,315,8.4,10.0,98,0.00,,,2.04,Rainwise IP-100,2013-09-04 00:16:00,
2013-09-03 20:17:00,69.7,69.0,29.67,NW,315,10.7,10.7,98,0.00,,,2.04,Rainwise IP-100,2013-09-04 00:17:00,
2013-09-03 20:19:00,69.7,69.0,29.67,NW,315,10.5,11.0,98,0.00,,,2.04,Rainwise IP-100,2013-09-04 00:19:00,
2013-09-03 20:20:00,69.7,69.0,29.67,NW,315,7.0,11.0,98,0.00,,,2.04,Rainwise IP-100,2013-09-04 00:20:00,
2013-09-03 20:21:00,69.7,69.0,29.67,WNW,292,8.4,11.0,97,0.00,,,2.04,Rainwise IP-100,2013-09-04 00:21:00,
2013-09-03 20:22:00,69.7,69.0,29.67,NW,315,9.8,11.0,97,0.00,,,2.04,Rainwise IP-100,2013-09-04 00:22:00,
2013-09-03 20:25:00,69.6,69.0,29.67,NNW,337,6.1,10.0,97,0.00,,,2.04,Rainwise IP-100,2013-09-04 00:25:00,
2013-09-03 20:26:00,69.6,69.0,29.68,NW,315,6.5,10.0,97,0.00,,,2.04,Rainwise IP-100,2013-09-04 00:26:00,
2013-09-03 20:27:00,69.6,69.0,29.68,NW,315,3.5,10.0,97,0.00,,,2.04,Rainwise IP-100,2013-09-04 00:27:00,
2013-09-03 20:30:00,69.5,68.0,29.68,WNW,292,5.4,9.0,96,0.00,,,2.04,Rainwise IP-100,2013-09-04 00:30:00,
2013-09-03 20:31:00,69.5,68.0,29.68,NW,315,6.8,9.0,96,0.00,,,2.04,Rainwise IP-100,2013-09-04 00:31:00,
2013-09-03 20:32:00,69.5,68.0,29.68,WNW,292,5.8,9.0,96,0.00,,,2.04,Rainwise IP-100,2013-09-04 00:32:00,
2013-09-03 20:34:00,69.4,68.0,29.68,NW,315,7.9,10.0,96,0.00,,,2.04,Rainwise IP-100,2013-09-04 00:34:00,
2013-09-03 20:37:00,69.4,68.0,29.68,NW,315,7.9,10.0,96,0.00,,,2.04,Rainwise IP-100,2013-09-04 00:37:00,
2013-09-03 20:38:00,69.3,68.0,29.68,NW,315,4.7,10.0,96,0.00,,,2.04,Rainwise IP-100,2013-09-04 00:38:00,
2013-09-03 20:40:00,69.3,68.0,29.68,NW,315,5.4,9.0,96,0.00,,,2.04,Rainwise IP-100,2013-09-04 00:40:00,
2013-09-03 20:41:00,69.3,67.0,29.68,NW,315,6.5,9.0,95,0.00,,,2.04,Rainwise IP-100,2013-09-04 00:41:00,
2013-09-03 20:42:00,69.3,67.0,29.68,NNW,337,8.6,9.0,95,0.00,,,2.04,Rainwise IP-100,2013-09-04 00:42:00,
2013-09-03 20:44:00,69.2,67.0,29.68,NNW,337,5.8,10.0,95,0.00,,,2.04,Rainwise IP-100,2013-09-04 00:44:00,
2013-09-03 20:45:00,69.2,67.0,29.68,NNW,337,7.2,10.0,95,0.00,,,2.04,Rainwise IP-100,2013-09-04 00:45:00,
2013-09-03 20:47:00,69.2,67.0,29.68,NNW,337,7.7,10.0,95,0.00,,,2.04,Rainwise IP-100,2013-09-04 00:47:00,
2013-09-03 20:48:00,69.2,67.0,29.69,WNW,292,6.8,10.0,95,0.00,,,2.04,Rainwise IP-100,2013-09-04 00:48:00,
2013-09-03 20:49:00,69.1,67.0,29.69,NW,315,7.7,10.0,95,0.00,,,2.04,Rainwise IP-100,2013-09-04 00:49:00,
2013-09-03 20:51:00,69.1,67.0,29.69,NW,315,8.4,10.0,94,0.00,,,2.04,Rainwise IP-100,2013-09-04 00:51:00,
2013-09-03 20:52:00,69.1,67.0,29.69,NNW,337,6.5,10.0,94,0.00,,,2.04,Rainwise IP-100,2013-09-04 00:52:00,
2013-09-03 20:53:00,69.0,67.0,29.69,NW,315,8.2,10.0,94,0.00,,,2.04,Rainwise IP-100,2013-09-04 00:53:00,
2013-09-03 20:54:00,69.0,67.0,29.69,WNW,292,5.8,9.0,94,0.00,,,2.04,Rainwise IP-100,2013-09-04 00:54:00,
2013-09-03 20:55:00,69.0,67.0,29.69,NW,315,7.0,9.0,94,0.00,,,2.04,Rainwise IP-100,2013-09-04 00:55:00,
2013-09-03 20:56:00,69.0,67.0,29.69,NW,315,4.4,10.0,94,0.00,,,2.04,Rainwise IP-100,2013-09-04 00:56:00,
2013-09-03 20:58:00,69.0,67.0,29.69,NNW,337,5.6,10.0,94,0.00,,,2.04,Rainwise IP-100,2013-09-04 00:58:00,
2013-09-03 20:59:00,69.0,67.0,29.69,WNW,292,6.1,10.0,94,0.00,,,2.04,Rainwise IP-100,2013-09-04 00:59:00,
2013-09-03 21:00:00,69.1,67.0,29.69,WNW,292,4.2,10.0,94,0.00,,,2.04,Rainwise IP-100,2013-09-04 01:00:00,
2013-09-03 21:03:00,69.1,67.0,29.70,NW,315,8.9,10.0,94,0.00,,,2.04,Rainwise IP-100,2013-09-04 01:03:00,
2013-09-03 21:04:00,69.1,67.0,29.69,NW,315,7.2,11.0,94,0.00,,,2.04,Rainwise IP-100,2013-09-04 01:04:00,
2013-09-03 21:05:00,69.1,67.0,29.69,NW,315,7.7,11.0,94,0.00,,,2.04,Rainwise IP-100,2013-09-04 01:05:00,
2013-09-03 21:08:00,69.1,67.0,29.69,NW,315,7.7,11.0,94,0.00,,,2.04,Rainwise IP-100,2013-09-04 01:08:00,
2013-09-03 21:09:00,69.1,67.0,29.70,WNW,292,8.2,11.0,94,0.00,,,2.04,Rainwise IP-100,2013-09-04 01:09:00,
2013-09-03 21:10:00,69.1,67.0,29.70,NW,315,8.4,9.0,94,0.00,,,2.04,Rainwise IP-100,2013-09-04 01:10:00,
2013-09-03 21:11:00,69.0,67.0,29.69,NW,315,8.9,9.0,94,0.00,,,2.04,Rainwise IP-100,2013-09-04 01:11:00,
2013-09-03 21:14:00,69.1,67.0,29.70,NW,315,6.8,11.0,94,0.00,,,2.04,Rainwise IP-100,2013-09-04 01:14:00,
2013-09-03 21:15:00,69.1,67.0,29.70,NW,315,6.8,11.0,94,0.00,,,2.04,Rainwise IP-100,2013-09-04 01:15:00,
2013-09-03 21:16:00,69.1,67.0,29.70,NW,315,6.5,11.0,94,0.00,,,2.04,Rainwise IP-100,2013-09-04 01:16:00,
2013-09-03 21:19:00,69.1,67.0,29.70,NW,315,7.7,8.0,94,0.00,,,2.04,Rainwise IP-100,2013-09-04 01:19:00,
2013-09-03 21:20:00,69.1,67.0,29.70,NNW,337,6.1,8.0,94,0.00,,,2.04,Rainwise IP-100,2013-09-04 01:20:00,
2013-09-03 21:21:00,69.1,67.0,29.70,NW,315,4.7,8.0,94,0.00,,,2.04,Rainwise IP-100,2013-09-04 01:21:00,
2013-09-03 21:22:00,69.0,67.0,29.70,NW,315,6.3,8.0,94,0.00,,,2.04,Rainwise IP-100,2013-09-04 01:22:00,
2013-09-03 21:24:00,68.9,67.0,29.70,NW,315,7.0,8.0,94,0.00,,,2.04,Rainwise IP-100,2013-09-04 01:24:00,
2013-09-03 21:25:00,68.9,67.0,29.70,NNW,337,4.9,8.0,94,0.00,,,2.04,Rainwise IP-100,2013-09-04 01:25:00,
2013-09-03 21:27:00,68.9,67.0,29.70,NW,315,7.0,8.0,94,0.00,,,2.04,Rainwise IP-100,2013-09-04 01:27:00,
2013-09-03 21:28:00,68.9,67.0,29.70,NNW,337,4.9,8.0,94,0.00,,,2.04,Rainwise IP-100,2013-09-04 01:28:00,
2013-09-03 21:29:00,68.9,67.0,29.70,WNW,292,5.4,8.0,94,0.00,,,2.04,Rainwise IP-100,2013-09-04 01:29:00,
2013-09-03 21:30:00,68.9,67.0,29.70,NW,315,6.3,8.0,94,0.00,,,2.04,Rainwise IP-100,2013-09-04 01:30:00,
2013-09-03 21:33:00,68.9,67.0,29.70,NW,315,7.0,8.0,94,0.00,,,2.04,Rainwise IP-100,2013-09-04 01:33:00,
2013-09-03 21:34:00,69.0,67.0,29.70,NW,315,5.4,8.0,94,0.00,,,2.04,Rainwise IP-100,2013-09-04 01:34:00,
2013-09-03 21:35:00,69.0,67.0,29.70,NW,315,5.6,8.0,94,0.00,,,2.04,Rainwise IP-100,2013-09-04 01:35:00,
2013-09-03 21:38:00,69.0,67.0,29.70,NNW,337,5.4,8.0,94,0.00,,,2.04,Rainwise IP-100,2013-09-04 01:38:00,
2013-09-03 21:39:00,69.0,67.0,29.70,NW,315,7.2,7.2,94,0.00,,,2.04,Rainwise IP-100,2013-09-04 01:39:00,
2013-09-03 21:40:00,69.0,67.0,29.70,NNW,337,4.4,7.0,94,0.00,,,2.04,Rainwise IP-100,2013-09-04 01:40:00,
2013-09-03 21:41:00,69.0,67.0,29.70,NNW,337,6.3,7.0,94,0.00,,,2.04,Rainwise IP-100,2013-09-04 01:41:00,
2013-09-03 21:42:00,69.0,67.0,29.71,NW,315,5.4,7.0,94,0.00,,,2.04,Rainwise IP-100,2013-09-04 01:42:00,
2013-09-03 21:44:00,69.0,67.0,29.71,NW,315,5.8,8.0,94,0.00,,,2.04,Rainwise IP-100,2013-09-04 01:44:00,
2013-09-03 21:45:00,68.9,67.0,29.70,NW,315,7.2,8.0,94,0.00,,,2.04,Rainwise IP-100,2013-09-04 01:45:00,
2013-09-03 21:46:00,68.9,67.0,29.70,NW,315,7.0,8.0,94,0.00,,,2.04,Rainwise IP-100,2013-09-04 01:46:00,
2013-09-03 21:49:00,68.9,67.0,29.71,NW,315,6.8,9.0,94,0.00,,,2.04,Rainwise IP-100,2013-09-04 01:49:00,
2013-09-03 21:50:00,68.9,67.0,29.71,NNW,337,6.8,9.0,94,0.00,,,2.04,Rainwise IP-100,2013-09-04 01:50:00,
2013-09-03 21:51:00,69.0,67.0,29.71,WNW,292,6.5,9.0,94,0.00,,,2.04,Rainwise IP-100,2013-09-04 01:51:00,
2013-09-03 21:52:00,69.0,67.0,29.71,NNW,337,5.4,9.0,94,0.00,,,2.04,Rainwise IP-100,2013-09-04 01:52:00,
2013-09-03 21:55:00,69.0,67.0,29.71,NW,315,7.0,9.0,94,0.00,,,2.04,Rainwise IP-100,2013-09-04 01:55:00,
2013-09-03 21:56:00,69.0,67.0,29.71,NW,315,8.2,8.2,94,0.00,,,2.04,Rainwise IP-100,2013-09-04 01:56:00,
2013-09-03 21:57:00,69.0,67.0,29.71,NW,315,6.1,8.0,94,0.00,,,2.04,Rainwise IP-100,2013-09-04 01:57:00,
2013-09-03 22:00:00,69.1,67.0,29.71,NNW,337,7.9,9.0,94,0.00,,,2.04,Rainwise IP-100,2013-09-04 02:00:00,
2013-09-03 22:01:00,69.1,67.0,29.71,NNW,337,4.7,9.0,94,0.00,,,2.04,Rainwise IP-100,2013-09-04 02:01:00,
2013-09-03 22:02:00,69.1,67.0,29.71,NNW,337,7.7,10.0,94,0.00,,,2.04,Rainwise IP-100,2013-09-04 02:02:00,
2013-09-03 22:03:00,69.1,67.0,29.71,NW,315,7.5,10.0,94,0.00,,,2.04,Rainwise IP-100,2013-09-04 02:03:00,
2013-09-03 22:06:00,69.2,67.0,29.71,NNW,337,5.6,10.0,94,0.00,,,2.04,Rainwise IP-100,2013-09-04 02:06:00,
2013-09-03 22:07:00,69.2,67.0,29.71,NNW,337,6.3,10.0,94,0.00,,,2.04,Rainwise IP-100,2013-09-04 02:07:00,
2013-09-03 22:08:00,69.2,67.0,29.71,NW,315,7.5,10.0,94,0.00,,,2.04,Rainwise IP-100,2013-09-04 02:08:00,
2013-09-03 22:10:00,69.2,67.0,29.71,NNW,337,3.7,10.0,94,0.00,,,2.04,Rainwise IP-100,2013-09-04 02:10:00,
2013-09-03 22:11:00,69.1,67.0,29.71,NW,315,4.9,9.0,94,0.00,,,2.04,Rainwise IP-100,2013-09-04 02:11:00,
2013-09-03 22:12:00,69.1,67.0,29.71,NNW,337,7.0,9.0,94,0.00,,,2.04,Rainwise IP-100,2013-09-04 02:12:00,
2013-09-03 22:13:00,69.1,67.0,29.71,NNW,337,7.5,9.0,94,0.00,,,2.04,Rainwise IP-100,2013-09-04 02:13:00,
2013-09-03 22:14:00,69.1,67.0,29.71,NW,315,8.6,9.0,94,0.00,,,2.04,Rainwise IP-100,2013-09-04 02:14:00,
2013-09-03 22:16:00,69.0,67.0,29.71,NNW,337,7.2,9.0,94,0.00,,,2.04,Rainwise IP-100,2013-09-04 02:16:00,
2013-09-03 22:17:00,69.0,67.0,29.71,NW,315,5.8,9.0,94,0.00,,,2.04,Rainwise IP-100,2013-09-04 02:17:00,
2013-09-03 22:18:00,69.0,67.0,29.71,NNW,337,8.6,9.0,94,0.00,,,2.04,Rainwise IP-100,2013-09-04 02:18:00,
2013-09-03 22:19:00,69.0,67.0,29.71,NNW,337,4.7,9.0,94,0.00,,,2.04,Rainwise IP-100,2013-09-04 02:19:00,
2013-09-03 22:20:00,69.0,67.0,29.71,NNW,337,7.0,9.0,94,0.00,,,2.04,Rainwise IP-100,2013-09-04 02:20:00,
2013-09-03 22:22:00,69.0,67.0,29.71,NNW,337,7.5,9.0,94,0.00,,,2.04,Rainwise IP-100,2013-09-04 02:22:00,
2013-09-03 22:23:00,69.0,67.0,29.71,NNW,337,8.4,9.0,94,0.00,,,2.04,Rainwise IP-100,2013-09-04 02:23:00,
2013-09-03 22:24:00,69.0,67.0,29.71,NNW,337,6.3,9.0,94,0.00,,,2.04,Rainwise IP-100,2013-09-04 02:24:00,
2013-09-03 22:25:00,68.9,67.0,29.71,NW,315,8.2,10.0,94,0.00,,,2.04,Rainwise IP-100,2013-09-04 02:25:00,
2013-09-03 22:26:00,68.9,67.0,29.71,NW,315,7.2,10.0,94,0.00,,,2.04,Rainwise IP-100,2013-09-04 02:26:00,
2013-09-03 22:28:00,69.0,67.0,29.71,NW,315,5.4,10.0,94,0.00,,,2.04,Rainwise IP-100,2013-09-04 02:28:00,
2013-09-03 22:29:00,69.0,66.0,29.71,NW,315,8.2,10.0,93,0.00,,,2.04,Rainwise IP-100,2013-09-04 02:29:00,
2013-09-03 22:30:00,69.0,66.0,29.72,NW,315,7.0,10.0,93,0.00,,,2.04,Rainwise IP-100,2013-09-04 02:30:00,
2013-09-03 22:31:00,69.0,66.0,29.71,NNW,337,6.8,10.0,93,0.00,,,2.04,Rainwise IP-100,2013-09-04 02:31:00,
2013-09-03 22:33:00,69.0,66.0,29.72,NNW,337,7.7,10.0,93,0.00,,,2.04,Rainwise IP-100,2013-09-04 02:33:00,
2013-09-03 22:34:00,69.0,66.0,29.71,NW,315,6.3,10.0,93,0.00,,,2.04,Rainwise IP-100,2013-09-04 02:34:00,
2013-09-03 22:35:00,69.1,66.0,29.71,NNW,337,7.5,10.0,93,0.00,,,2.04,Rainwise IP-100,2013-09-04 02:35:00,
2013-09-03 22:36:00,69.1,66.0,29.72,NNW,337,6.5,10.0,93,0.00,,,2.04,Rainwise IP-100,2013-09-04 02:36:00,
2013-09-03 22:38:00,69.1,66.0,29.71,NNW,337,5.8,10.0,92,0.00,,,2.04,Rainwise IP-100,2013-09-04 02:38:00,
2013-09-03 22:40:00,69.1,66.0,29.71,NNW,337,5.6,11.0,92,0.00,,,2.04,Rainwise IP-100,2013-09-04 02:40:00,
2013-09-03 22:41:00,69.1,66.0,29.72,NNW,337,7.9,11.0,92,0.00,,,2.04,Rainwise IP-100,2013-09-04 02:41:00,
2013-09-03 22:42:00,69.1,66.0,29.72,NNW,337,8.4,11.0,92,0.00,,,2.04,Rainwise IP-100,2013-09-04 02:42:00,
2013-09-03 22:43:00,69.1,66.0,29.72,NNW,337,7.9,11.0,92,0.00,,,2.04,Rainwise IP-100,2013-09-04 02:43:00,
2013-09-03 22:44:00,69.1,66.0,29.72,NNW,337,9.6,12.0,91,0.00,,,2.04,Rainwise IP-100,2013-09-04 02:44:00,
2013-09-03 22:45:00,69.1,66.0,29.71,NW,315,11.9,12.0,91,0.00,,,2.04,Rainwise IP-100,2013-09-04 02:45:00,
2013-09-03 22:46:00,69.1,66.0,29.71,NNW,337,9.1,12.0,91,0.00,,,2.04,Rainwise IP-100,2013-09-04 02:46:00,
2013-09-03 22:47:00,69.1,66.0,29.72,NW,315,8.6,12.0,91,0.00,,,2.04,Rainwise IP-100,2013-09-04 02:47:00,
2013-09-03 22:48:00,69.0,66.0,29.72,NNW,337,7.0,12.0,91,0.00,,,2.04,Rainwise IP-100,2013-09-04 02:48:00,
2013-09-03 22:49:00,69.0,66.0,29.72,NNW,337,8.6,11.0,91,0.00,,,2.04,Rainwise IP-100,2013-09-04 02:49:00,
2013-09-03 22:51:00,69.1,66.0,29.71,NNW,337,8.2,12.0,91,0.00,,,2.04,Rainwise IP-100,2013-09-04 02:51:00,
2013-09-03 22:52:00,69.1,66.0,29.72,NNW,337,7.5,12.0,90,0.00,,,2.04,Rainwise IP-100,2013-09-04 02:52:00,
2013-09-03 22:53:00,69.1,66.0,29.72,NNW,337,9.1,12.0,90,0.00,,,2.04,Rainwise IP-100,2013-09-04 02:53:00,
2013-09-03 22:54:00,69.0,66.0,29.72,NNW,337,10.7,12.0,90,0.00,,,2.04,Rainwise IP-100,2013-09-04 02:54:00,
2013-09-03 22:56:00,69.0,66.0,29.72,NNW,337,8.4,11.0,90,0.00,,,2.04,Rainwise IP-100,2013-09-04 02:56:00,
2013-09-03 22:57:00,69.0,66.0,29.72,NNW,337,8.6,11.0,90,0.00,,,2.04,Rainwise IP-100,2013-09-04 02:57:00,
2013-09-03 22:58:00,69.0,66.0,29.72,NNW,337,9.8,11.0,90,0.00,,,2.04,Rainwise IP-100,2013-09-04 02:58:00,
2013-09-03 22:59:00,68.9,66.0,29.72,NNW,337,10.0,12.0,90,0.00,,,2.04,Rainwise IP-100,2013-09-04 02:59:00,
2013-09-03 23:01:00,68.8,65.0,29.72,NNW,337,5.1,12.0,90,0.00,,,2.04,Rainwise IP-100,2013-09-04 03:01:00,
2013-09-03 23:02:00,68.8,65.0,29.72,NNW,337,6.5,12.0,90,0.00,,,2.04,Rainwise IP-100,2013-09-04 03:02:00,
2013-09-03 23:03:00,68.8,65.0,29.72,NNW,337,11.2,12.0,90,0.00,,,2.04,Rainwise IP-100,2013-09-04 03:03:00,
2013-09-03 23:04:00,68.8,65.0,29.72,NNW,337,8.2,14.0,90,0.00,,,2.04,Rainwise IP-100,2013-09-04 03:04:00,
2013-09-03 23:05:00,68.8,65.0,29.72,NNW,337,6.8,14.0,90,0.00,,,2.04,Rainwise IP-100,2013-09-04 03:05:00,
2013-09-03 23:06:00,68.8,65.0,29.72,NNW,337,8.4,14.0,90,0.00,,,2.04,Rainwise IP-100,2013-09-04 03:06:00,
2013-09-03 23:07:00,68.8,65.0,29.72,NW,315,9.6,14.0,90,0.00,,,2.04,Rainwise IP-100,2013-09-04 03:07:00,
2013-09-03 23:09:00,68.8,65.0,29.72,NNW,337,8.2,14.0,90,0.00,,,2.04,Rainwise IP-100,2013-09-04 03:09:00,
2013-09-03 23:10:00,68.8,65.0,29.72,NNW,337,7.7,14.0,90,0.00,,,2.04,Rainwise IP-100,2013-09-04 03:10:00,
2013-09-03 23:11:00,68.8,65.0,29.72,NNW,337,8.6,14.0,89,0.00,,,2.04,Rainwise IP-100,2013-09-04 03:11:00,
2013-09-03 23:12:00,68.7,65.0,29.72,NNW,337,9.6,14.0,89,0.00,,,2.04,Rainwise IP-100,2013-09-04 03:12:00,
2013-09-03 23:13:00,68.8,65.0,29.72,NNW,337,11.9,14.0,89,0.00,,,2.04,Rainwise IP-100,2013-09-04 03:13:00,
2013-09-03 23:15:00,68.7,65.0,29.72,NNW,337,11.7,11.7,89,0.00,,,2.04,Rainwise IP-100,2013-09-04 03:15:00,
2013-09-03 23:16:00,68.7,65.0,29.72,NNW,337,7.2,11.0,88,0.00,,,2.04,Rainwise IP-100,2013-09-04 03:16:00,
2013-09-03 23:17:00,68.7,65.0,29.72,NW,315,7.7,11.0,88,0.00,,,2.04,Rainwise IP-100,2013-09-04 03:17:00,
2013-09-03 23:18:00,68.6,65.0,29.72,NNW,337,8.6,11.0,88,0.00,,,2.04,Rainwise IP-100,2013-09-04 03:18:00,
2013-09-03 23:20:00,68.7,65.0,29.72,NNW,337,6.8,11.0,88,0.00,,,2.04,Rainwise IP-100,2013-09-04 03:20:00,
2013-09-03 23:22:00,68.7,65.0,29.72,NNW,337,7.2,11.0,88,0.00,,,2.04,Rainwise IP-100,2013-09-04 03:22:00,
2013-09-03 23:23:00,68.6,65.0,29.72,NNW,337,9.3,10.0,88,0.00,,,2.04,Rainwise IP-100,2013-09-04 03:23:00,
2013-09-03 23:24:00,68.6,65.0,29.72,NNW,337,8.4,12.0,88,0.00,,,2.04,Rainwise IP-100,2013-09-04 03:24:00,
2013-09-03 23:25:00,68.6,65.0,29.72,NNW,337,10.3,12.0,88,0.00,,,2.04,Rainwise IP-100,2013-09-04 03:25:00,
2013-09-03 23:26:00,68.6,64.0,29.72,NNW,337,6.3,12.0,87,0.00,,,2.04,Rainwise IP-100,2013-09-04 03:26:00,
2013-09-03 23:28:00,68.5,64.0,29.72,NNW,337,9.3,12.0,87,0.00,,,2.04,Rainwise IP-100,2013-09-04 03:28:00,
2013-09-03 23:29:00,68.5,64.0,29.72,NNW,337,7.2,12.0,87,0.00,,,2.04,Rainwise IP-100,2013-09-04 03:29:00,
2013-09-03 23:30:00,68.5,64.0,29.72,NNW,337,7.9,14.0,87,0.00,,,2.04,Rainwise IP-100,2013-09-04 03:30:00,
2013-09-03 23:31:00,68.4,64.0,29.72,NNW,337,10.7,14.0,87,0.00,,,2.04,Rainwise IP-100,2013-09-04 03:31:00,
2013-09-03 23:32:00,68.4,64.0,29.72,NNW,337,8.6,14.0,87,0.00,,,2.04,Rainwise IP-100,2013-09-04 03:32:00,
2013-09-03 23:33:00,68.4,64.0,29.72,North,360,6.1,14.0,87,0.00,,,2.04,Rainwise IP-100,2013-09-04 03:33:00,
2013-09-03 23:35:00,68.4,64.0,29.72,NNW,337,7.2,12.0,87,0.00,,,2.04,Rainwise IP-100,2013-09-04 03:35:00,
2013-09-03 23:36:00,68.3,64.0,29.72,North,360,7.2,11.0,87,0.00,,,2.04,Rainwise IP-100,2013-09-04 03:36:00,
2013-09-03 23:39:00,68.3,64.0,29.72,NNW,337,6.5,11.0,87,0.00,,,2.04,Rainwise IP-100,2013-09-04 03:39:00,
2013-09-03 23:40:00,68.3,64.0,29.72,NNW,337,8.6,11.0,87,0.00,,,2.04,Rainwise IP-100,2013-09-04 03:40:00,
2013-09-03 23:41:00,68.3,64.0,29.72,NNW,337,7.9,11.0,87,0.00,,,2.04,Rainwise IP-100,2013-09-04 03:41:00,
2013-09-03 23:42:00,68.2,64.0,29.72,NW,315,6.3,11.0,87,0.00,,,2.04,Rainwise IP-100,2013-09-04 03:42:00,
2013-09-03 23:44:00,68.1,64.0,29.72,NNW,337,6.5,12.0,87,0.00,,,2.04,Rainwise IP-100,2013-09-04 03:44:00,
2013-09-03 23:45:00,68.1,64.0,29.72,NNW,337,7.9,12.0,87,0.00,,,2.04,Rainwise IP-100,2013-09-04 03:45:00,
2013-09-03 23:46:00,68.0,64.0,29.72,NNW,337,7.5,12.0,87,0.00,,,2.04,Rainwise IP-100,2013-09-04 03:46:00,
2013-09-03 23:50:00,67.9,64.0,29.72,NW,315,11.0,11.0,87,0.00,,,2.04,Rainwise IP-100,2013-09-04 03:50:00,
2013-09-03 23:51:00,68.0,64.0,29.72,NNW,337,7.0,11.0,87,0.00,,,2.04,Rainwise IP-100,2013-09-04 03:51:00,
2013-09-03 23:52:00,68.0,64.0,29.72,NNW,337,9.8,12.0,87,0.00,,,2.04,Rainwise IP-100,2013-09-04 03:52:00,
2013-09-03 23:55:00,68.0,64.0,29.72,NNW,337,11.0,12.0,87,0.00,,,2.04,Rainwise IP-100,2013-09-04 03:55:00,
2013-09-03 23:56:00,68.0,64.0,29.72,NNW,337,8.2,12.0,87,0.00,,,2.04,Rainwise IP-100,2013-09-04 03:56:00,
2013-09-03 23:58:00,67.9,64.0,29.72,NNW,337,7.9,11.0,87,0.00,,,2.04,Rainwise IP-100,2013-09-04 03:58:00,